GW2849 Weather Reports


time (UTC)temp
F
wind
direction
speed
knots
gust
knots
rain 1hr
in
rain 24hr
in
rain mn
in
humidity
%
barometer
mb
20260507145300 56 162 1.7 3.5 0.00 0.00 0.00 47 1015.2
20260507145200 56 340 1.7 3.5 0.00 0.00 0.00 49 1015.2
20260507145000 56 328 0.9 3.5 0.00 0.00 0.00 50 1015.2
20260507144901 55 346 1.7 2.6 0.00 0.00 0.00 48 1015.2
20260507144801 55 325 0.0 2.6 0.00 0.00 0.00 49 1015.1
20260507144701 55 323 0.9 2.6 0.00 0.00 0.00 49 1015.2
20260507144503 55 327 1.7 7.0 0.00 0.00 0.00 48 1015.1
20260507144402 55 236 0.9 7.0 0.00 0.00 0.00 47 1015.1
20260507144300 55 74 1.7 7.0 0.00 0.00 0.00 48 1015.2
20260507144201 55 314 0.9 7.0 0.00 0.00 0.00 49 1015.2
20260507144100 55 50 0.0 7.0 0.00 0.00 0.00 50 1015.2
20260507144002 55 46 1.7 7.0 0.00 0.00 0.00 49 1015.2
20260507143901 55 46 0.9 7.0 0.00 0.00 0.00 52 1015.2
20260507143801 55 27 2.6 7.0 0.00 0.00 0.00 51 1015.2
20260507143700 55 34 3.5 7.0 0.00 0.00 0.00 50 1015.2
20260507143600 55 346 1.7 2.6 0.00 0.00 0.00 52 1015.2
20260507143500 55 327 0.0 2.6 0.00 0.00 0.00 52 1015.2
20260507143403 55 335 2.6 2.6 0.00 0.00 0.00 52 1015.2
20260507143302 55 355 1.7 5.2 0.00 0.00 0.00 50 1015.2
20260507143201 54 180 0.9 5.2 0.00 0.00 0.00 50 1015.2
20260507143059 54 180 0.9 5.2 0.00 0.00 0.00 50 1015.2
20260507143000 54 179 0.9 5.2 0.00 0.00 0.00 51 1015.3
20260507142900 54 34 0.9 5.2 0.00 0.00 0.00 52 1015.3
20260507142801 54 5 0.0 5.2 0.00 0.00 0.00 52 1015.3
20260507142659 54 326 0.0 5.2 0.00 0.00 0.00 52 1015.3
20260507142601 54 317 0.9 5.2 0.00 0.00 0.00 53 1015.3
20260507142500 54 351 1.7 5.2 0.00 0.00 0.00 53 1015.3
20260507142359 54 344 4.3 5.2 0.00 0.00 0.00 52 1015.2
20260507142300 54 316 1.7 5.2 0.00 0.00 0.00 51 1015.2
20260507142200 54 348 2.6 5.2 0.00 0.00 0.00 51 1015.3
20260507142101 54 13 3.5 6.1 0.00 0.00 0.00 52 1015.3
20260507142002 54 19 0.0 5.2 0.00 0.00 0.00 52 1015.3
20260507141800 54 355 0.9 9.6 0.00 0.00 0.00 53 1015.3
20260507141659 54 351 0.9 9.6 0.00 0.00 0.00 52 1015.3
20260507141602 54 355 0.0 9.6 0.00 0.00 0.00 51 1015.3
20260507141500 54 355 3.5 9.6 0.00 0.00 0.00 49 1015.2
20260507141400 54 10 0.9 9.6 0.00 0.00 0.00 50 1015.3
20260507141300 54 355 1.7 9.6 0.00 0.00 0.00 50 1015.2
20260507141202 54 360 2.6 9.6 0.00 0.00 0.00 50 1015.3
20260507141100 54 13 6.1 9.6 0.00 0.00 0.00 49 1015.3
20260507141000 54 344 1.7 7.8 0.00 0.00 0.00 48 1015.3
20260507140859 54 355 2.6 7.8 0.00 0.00 0.00 48 1015.4
20260507140759 54 26 0.0 7.8 0.00 0.00 0.00 49 1015.5
20260507140701 54 9 3.5 7.8 0.00 0.00 0.00 48 1015.5
20260507140459 54 14 2.6 7.8 0.00 0.00 0.00 48 1015.5
20260507140359 54 319 0.9 7.8 0.00 0.00 0.00 49 1015.5
20260507140300 54 350 3.5 7.8 0.00 0.00 0.00 49 1015.5
20260507140200 54 328 3.5 4.3 0.00 0.00 0.00 48 1015.5
20260507140100 54 335 0.9 4.3 0.00 0.00 0.00 49 1015.5
20260507140000 54 321 0.0 4.3 0.00 0.00 0.00 50 1015.6
20260507135859 53 327 1.7 4.3 0.00 0.00 0.00 49 1015.5
20260507135759 53 35 0.0 4.3 0.00 0.00 0.00 50 1015.5
20260507135700 53 34 0.0 5.2 0.00 0.00 0.00 50 1015.5
20260507135559 53 10 0.0 5.2 0.00 0.00 0.00 50 1015.4
20260507135500 53 344 0.0 5.2 0.00 0.00 0.00 50 1015.4
20260507135400 53 342 1.7 5.2 0.00 0.00 0.00 51 1015.4
20260507135259 53 314 3.5 5.2 0.00 0.00 0.00 51 1015.3
20260507135200 53 39 2.6 5.2 0.00 0.00 0.00 50 1015.5
20260507135059 53 336 0.0 5.2 0.00 0.00 0.00 51 1015.4
20260507135001 53 344 2.6 5.2 0.00 0.00 0.00 49 1015.4
20260507134859 53 346 0.9 5.2 0.00 0.00 0.00 51 1015.3
20260507134759 53 5 5.2 7.0 0.00 0.00 0.00 51 1015.4
20260507134700 53 344 1.7 8.7 0.00 0.00 0.00 51 1015.3
20260507134358 52 11 1.7 8.7 0.00 0.00 0.00 51 1015.3
20260507134301 52 346 0.9 8.7 0.00 0.00 0.00 52 1015.3
20260507134200 52 319 1.7 8.7 0.00 0.00 0.00 50 1015.3
20260507134059 52 13 0.9 8.7 0.00 0.00 0.00 52 1015.3
20260507133959 52 355 2.6 8.7 0.00 0.00 0.00 51 1015.2
20260507133900 52 10 1.7 8.7 0.00 0.00 0.00 50 1015.3
20260507133800 52 240 0.0 5.2 0.00 0.00 0.00 52 1015.3
20260507133659 52 239 1.7 8.7 0.00 0.00 0.00 53 1015.3
20260507133358 52 360 1.7 8.7 0.00 0.00 0.00 52 1015.3
20260507133259 52 335 0.9 8.7 0.00 0.00 0.00 51 1015.4
20260507133159 52 348 1.7 8.7 0.00 0.00 0.00 50 1015.3
20260507133101 52 16 3.5 8.7 0.00 0.00 0.00 49 1015.3
20260507132901 52 324 1.7 8.7 0.00 0.00 0.00 50 1015.4
20260507132700 52 26 0.9 5.2 0.00 0.00 0.00 55 1015.3
20260507132602 52 319 1.7 5.2 0.00 0.00 0.00 52 1015.3
20260507132502 52 355 0.0 4.3 0.00 0.00 0.00 53 1015.3
20260507132400 52 9 1.7 4.3 0.00 0.00 0.00 53 1015.4
20260507132259 52 355 1.7 4.3 0.00 0.00 0.00 55 1015.5
20260507132201 52 350 0.0 4.3 0.00 0.00 0.00 54 1015.5
20260507132101 52 337 0.0 4.3 0.00 0.00 0.00 53 1015.4
20260507132003 52 337 0.0 4.3 0.00 0.00 0.00 54 1015.4
20260507131900 52 5 0.9 4.3 0.00 0.00 0.00 55 1015.3
20260507131800 52 5 0.0 4.3 0.00 0.00 0.00 54 1015.3
20260507131700 52 360 0.9 4.3 0.00 0.00 0.00 54 1015.3
20260507131600 52 5 0.9 4.3 0.00 0.00 0.00 55 1015.3
20260507131501 52 9 2.6 4.3 0.00 0.00 0.00 55 1015.4
20260507131359 52 18 1.7 4.3 0.00 0.00 0.00 55 1015.3
20260507131301 52 18 1.7 4.3 0.00 0.00 0.00 55 1015.3
20260507131202 52 360 1.7 4.3 0.00 0.00 0.00 55 1015.3
20260507131102 52 342 2.6 4.3 0.00 0.00 0.00 56 1015.3
20260507131000 52 29 0.0 2.6 0.00 0.00 0.00 56 1015.3
20260507130901 52 179 0.0 3.5 0.00 0.00 0.00 58 1015.3
20260507130800 52 176 0.0 5.2 0.00 0.00 0.00 57 1015.2
20260507130700 52 329 0.0 5.2 0.00 0.00 0.00 56 1015.3
20260507130601 52 329 0.0 5.2 0.00 0.00 0.00 56 1015.3
20260507130502 52 329 0.0 5.2 0.00 0.00 0.00 57 1015.3
20260507130403 52 336 0.0 5.2 0.00 0.00 0.00 58 1015.3
20260507130300 52 341 0.0 5.2 0.00 0.00 0.00 57 1015.2
20260507130200 52 341 0.0 5.2 0.00 0.00 0.00 57 1015.2
20260507130101 52 336 0.0 5.2 0.00 0.00 0.00 57 1015.2
20260507130002 51 20 3.5 6.1 0.00 0.00 0.00 58 1015.2
20260507125900 51 5 2.6 3.5 0.00 0.00 0.00 59 1015.2
20260507125801 51 360 1.7 1.7 0.00 0.00 0.00 60 1015.2
20260507125500 51 351 1.7 1.7 0.00 0.00 0.00 60 1015.2
20260507125401 51 350 0.0 1.7 0.00 0.00 0.00 61 1015.2
20260507125301 51 350 1.7 2.6 0.00 0.00 0.00 60 1015.2
20260507125100 50 355 0.0 3.5 0.00 0.00 0.00 61 1015.2
20260507124959 50 355 0.0 3.5 0.00 0.00 0.00 61 1015.2
20260507124900 50 355 1.7 3.5 0.00 0.00 0.00 61 1015.3
20260507124759 50 328 0.9 3.5 0.00 0.00 0.00 62 1015.3
20260507124700 50 328 0.9 3.5 0.00 0.00 0.00 62 1015.2
20260507124559 50 9 0.0 3.5 0.00 0.00 0.00 62 1015.2
20260507124459 50 9 0.0 3.5 0.00 0.00 0.00 62 1015.2
20260507124400 49 9 1.7 3.5 0.00 0.00 0.00 63 1015.2
20260507124159 49 355 0.9 4.3 0.00 0.00 0.00 58 1015.3
20260507124100 49 332 0.9 4.3 0.00 0.00 0.00 59 1015.3
20260507124000 49 355 0.0 4.3 0.00 0.00 0.00 59 1015.3
20260507123900 49 360 1.7 4.3 0.00 0.00 0.00 60 1015.4
20260507123759 49 355 0.0 4.3 0.00 0.00 0.00 60 1015.3
20260507123659 49 355 0.9 4.3 0.00 0.00 0.00 60 1015.4
20260507123559 49 350 0.9 4.3 0.00 0.00 0.00 61 1015.4
20260507123459 49 339 2.6 4.3 0.00 0.00 0.00 60 1015.5
20260507123400 48 348 2.6 4.3 0.00 0.00 0.00 63 1015.4
20260507123201 48 355 0.0 4.3 0.00 0.00 0.00 63 1015.3
20260507123059 48 355 0.0 4.3 0.00 0.00 0.00 63 1015.3
20260507123000 48 350 2.6 4.3 0.00 0.00 0.00 65 1015.3
20260507122859 48 49 0.9 2.6 0.00 0.00 0.00 66 1015.3
20260507122759 47 70 0.0 2.6 0.00 0.00 0.00 66 1015.3
20260507122659 47 334 0.0 2.6 0.00 0.00 0.00 67 1015.3
20260507122600 47 335 0.0 2.6 0.00 0.00 0.00 67 1015.4
20260507122400 47 38 1.7 2.6 0.00 0.00 0.00 69 1015.4
20260507122200 46 16 0.0 2.6 0.00 0.00 0.00 72 1015.4
20260507122100 46 16 0.0 2.6 0.00 0.00 0.00 72 1015.4
20260507121859 46 339 0.0 2.6 0.00 0.00 0.00 75 1015.5
20260507121801 45 339 0.0 2.6 0.00 0.00 0.00 75 1015.5
20260507121559 45 355 0.0 2.6 0.00 0.00 0.00 76 1015.5
20260507121500 45 355 0.0 2.6 0.00 0.00 0.00 77 1015.5
20260507121359 44 355 0.0 2.6 0.00 0.00 0.00 78 1015.4
20260507121259 44 348 0.0 2.6 0.00 0.00 0.00 79 1015.5
20260507121202 44 348 0.0 2.6 0.00 0.00 0.00 80 1015.4
20260507121100 44 348 0.0 2.6 0.00 0.00 0.00 81 1015.5
20260507121000 44 348 0.0 2.6 0.00 0.00 0.00 81 1015.4
20260507120900 44 348 1.7 2.6 0.00 0.00 0.00 82 1015.3
20260507120801 43 343 0.0 1.7 0.00 0.00 0.00 82 1015.3
20260507120658 43 343 0.0 1.7 0.00 0.00 0.00 83 1015.3
20260507120601 43 343 0.0 1.7 0.00 0.00 0.00 84 1015.3
20260507120359 42 343 0.9 1.7 0.00 0.00 0.00 85 1015.4
20260507120300 42 343 0.0 1.7 0.00 0.00 0.00 85 1015.3
20260507120201 42 343 0.0 1.7 0.00 0.00 0.00 86 1015.3
20260507115959 42 331 0.0 0.9 0.00 0.00 0.00 88 1015.3
20260507115858 42 331 0.0 0.9 0.00 0.00 0.00 89 1015.4
20260507115759 41 331 0.0 0.9 0.00 0.00 0.00 89 1015.3
20260507115658 41 331 0.0 0.9 0.00 0.00 0.00 90 1015.3
20260507115559 41 331 0.0 0.9 0.00 0.00 0.00 90 1015.4
20260507115359 41 331 0.0 0.9 0.00 0.00 0.00 91 1015.4
20260507115300 40 331 0.0 0.9 0.00 0.00 0.00 92 1015.5
20260507115159 40 331 0.0 0.9 0.00 0.00 0.00 92 1015.5
20260507115100 40 331 0.0 0.9 0.00 0.00 0.00 92 1015.5
20260507114900 40 331 0.0 0.9 0.00 0.00 0.00 92 1015.4
20260507114800 40 331 0.0 0.9 0.00 0.00 0.00 92 1015.4
20260507114559 39 331 0.0 0.0 0.00 0.00 0.00 92 1015.2
20260507114500 39 331 0.0 0.0 0.00 0.00 0.00 92 1015.3
20260507114359 39 331 0.0 0.0 0.00 0.00 0.00 92 1015.3
20260507114158 39 331 0.0 0.0 0.00 0.00 0.00 91 1015.3
20260507114059 39 331 0.0 0.0 0.00 0.00 0.00 91 1015.3
20260507114001 38 331 0.0 0.9 0.00 0.00 0.00 91 1015.2
20260507113859 38 331 0.0 0.9 0.00 0.00 0.00 91 1015.3
20260507113759 38 331 0.0 0.9 0.00 0.00 0.00 91 1015.3
20260507113659 38 331 0.0 0.9 0.00 0.00 0.00 91 1015.3
20260507113559 38 331 0.0 0.9 0.00 0.00 0.00 91 1015.2
20260507113459 38 331 0.0 0.9 0.00 0.00 0.00 91 1015.2
20260507113359 38 331 0.0 0.9 0.00 0.00 0.00 92 1015.3
20260507113300 38 331 0.0 0.9 0.00 0.00 0.00 91 1015.3
20260507113100 38 331 0.0 0.9 0.00 0.00 0.00 92 1015.3
20260507112959 38 331 0.0 0.0 0.00 0.00 0.00 92 1015.3
20260507112900 38 331 0.0 0.0 0.00 0.00 0.00 92 1015.3
20260507112800 38 331 0.0 0.0 0.00 0.00 0.00 92 1015.3
20260507112659 38 331 0.0 0.0 0.00 0.00 0.00 92 1015.3
20260507112559 38 331 0.0 0.0 0.00 0.00 0.00 92 1015.3
20260507112459 38 331 0.0 0.0 0.00 0.00 0.00 91 1015.2
20260507112259 37 331 0.0 0.0 0.00 0.00 0.00 91 1015.2
20260507112200 37 331 0.0 0.0 0.00 0.00 0.00 91 1015.2
20260507112059 37 331 0.0 0.0 0.00 0.00 0.00 91 1015.2
20260507111900 37 331 0.0 0.0 0.00 0.00 0.00 91 1015.3
20260507111759 37 331 0.0 0.0 0.00 0.00 0.00 91 1015.2
20260507111459 37 331 0.0 0.0 0.00 0.00 0.00 91 1015.2
20260507111401 37 331 0.0 0.0 0.00 0.00 0.00 91 1015.2
20260507111300 37 331 0.0 0.0 0.00 0.00 0.00 91 1015.2
20260507111159 37 331 0.0 0.0 0.00 0.00 0.00 91 1015.2
20260507111100 37 331 0.0 0.0 0.00 0.00 0.00 91 1015.1
20260507110858 37 331 0.0 0.0 0.00 0.00 0.00 91 1015.0
20260507110758 37 331 0.0 0.0 0.00 0.00 0.00 91 1015.0
20260507110659 37 331 0.0 0.0 0.00 0.00 0.00 91 1015.1
20260507110559 37 331 0.0 0.0 0.00 0.00 0.00 90 1015.0
20260507110459 37 331 0.0 0.0 0.00 0.00 0.00 90 1014.9
20260507110400 37 331 0.0 0.0 0.00 0.00 0.00 90 1014.9
20260507110159 37 331 0.0 0.0 0.00 0.00 0.00 90 1014.9
20260507105959 37 331 0.0 0.0 0.00 0.00 0.00 90 1014.9
20260507105900 37 331 0.0 0.0 0.00 0.00 0.00 90 1014.9
20260507105659 37 331 0.0 0.0 0.00 0.00 0.00 90 1014.9
20260507105359 37 331 0.0 0.0 0.00 0.00 0.00 90 1014.8
20260507105258 37 331 0.0 0.0 0.00 0.00 0.00 90 1014.8
20260507105158 37 331 0.0 0.0 0.00 0.00 0.00 90 1014.8
20260507105059 37 331 0.0 0.0 0.00 0.00 0.00 90 1014.7
20260507104858 37 331 0.0 0.0 0.00 0.00 0.00 90 1014.7
20260507104759 37 331 0.0 0.0 0.00 0.00 0.00 90 1014.7
20260507104659 37 331 0.0 0.0 0.00 0.00 0.00 90 1014.7
20260507104559 37 331 0.0 0.0 0.00 0.00 0.00 90 1014.7
20260507104501 37 331 0.0 0.0 0.00 0.00 0.00 90 1014.7
20260507104359 37 331 0.0 0.0 0.00 0.00 0.00 90 1014.7
20260507104159 37 331 0.0 0.0 0.00 0.00 0.00 90 1014.7
20260507104059 37 331 0.0 0.0 0.00 0.00 0.00 90 1014.7
20260507103959 37 331 0.0 0.0 0.00 0.00 0.00 90 1014.7
20260507103859 37 331 0.0 0.0 0.00 0.00 0.00 90 1014.7
20260507103759 37 331 0.0 0.0 0.00 0.00 0.00 90 1014.7
20260507103659 37 331 0.0 0.0 0.00 0.00 0.00 90 1014.7
20260507103558 37 331 0.0 0.0 0.00 0.00 0.00 90 1014.7
20260507103459 37 331 0.0 0.0 0.00 0.00 0.00 90 1014.7
20260507103359 37 331 0.0 0.0 0.00 0.00 0.00 90 1014.7
20260507103159 37 331 0.0 0.0 0.00 0.00 0.00 90 1014.8
20260507103102 37 331 0.0 0.0 0.00 0.00 0.00 90 1014.7
20260507102959 37 331 0.0 0.0 0.00 0.00 0.00 90 1014.7
20260507102859 37 331 0.0 0.0 0.00 0.00 0.00 90 1014.8
20260507102759 37 331 0.0 0.0 0.00 0.00 0.00 90 1014.7
20260507102659 37 331 0.0 0.0 0.00 0.00 0.00 90 1014.7
20260507102558 37 331 0.0 0.0 0.00 0.00 0.00 90 1014.7
20260507102459 37 331 0.0 0.0 0.00 0.00 0.00 90 1014.7
20260507102300 37 331 0.0 0.0 0.00 0.00 0.00 90 1014.7
20260507102101 37 331 0.0 0.0 0.00 0.00 0.00 90 1014.7
20260507101859 37 331 0.0 0.0 0.00 0.00 0.00 90 1014.8
20260507101759 37 331 0.0 0.0 0.00 0.00 0.00 90 1014.7
20260507101600 37 331 0.0 0.0 0.00 0.00 0.00 90 1014.8
20260507101359 37 331 0.0 0.0 0.00 0.00 0.00 90 1014.7
20260507101259 37 331 0.0 0.0 0.00 0.00 0.00 90 1014.8
20260507101158 37 331 0.0 0.0 0.00 0.00 0.00 90 1014.7
20260507101100 37 331 0.0 0.0 0.00 0.00 0.00 90 1014.7
20260507100959 37 331 0.0 0.0 0.00 0.00 0.00 90 1014.7
20260507100900 37 331 0.0 0.0 0.00 0.00 0.00 90 1014.7
20260507100800 37 331 0.0 0.0 0.00 0.00 0.00 90 1014.7
20260507100659 37 331 0.0 0.0 0.00 0.00 0.00 90 1014.7
20260507100601 37 331 0.0 0.0 0.00 0.00 0.00 90 1014.7
20260507100458 37 331 0.0 0.0 0.00 0.00 0.00 90 1014.8
20260507100400 37 331 0.0 0.0 0.00 0.00 0.00 90 1014.7
20260507100158 38 331 0.0 0.0 0.00 0.00 0.00 90 1014.7
20260507095859 38 331 0.0 0.0 0.00 0.00 0.00 90 1014.7
20260507095659 38 331 0.0 0.0 0.00 0.00 0.00 90 1014.7
20260507095559 38 331 0.0 0.0 0.00 0.00 0.00 90 1014.7
20260507095458 38 331 0.0 0.0 0.00 0.00 0.00 90 1014.7
20260507095359 38 331 0.0 0.0 0.00 0.00 0.00 90 1014.8
20260507095300 38 331 0.0 0.0 0.00 0.00 0.00 90 1014.7
20260507095159 38 331 0.0 0.0 0.00 0.00 0.00 90 1014.7
20260507095100 38 331 0.0 0.0 0.00 0.00 0.00 90 1014.7
20260507095000 38 331 0.0 0.0 0.00 0.00 0.00 90 1014.8
20260507094858 38 331 0.0 0.0 0.00 0.00 0.00 90 1014.7
20260507094800 38 331 0.0 0.0 0.00 0.00 0.00 90 1014.7
20260507094700 38 331 0.0 0.0 0.00 0.00 0.00 90 1014.7
20260507094558 38 331 0.0 0.0 0.00 0.00 0.00 90 1014.8
20260507094458 38 331 0.0 0.0 0.00 0.00 0.00 90 1014.8
20260507094359 38 331 0.0 0.0 0.00 0.00 0.00 90 1014.8
20260507094158 38 331 0.0 0.0 0.00 0.00 0.00 90 1014.8
20260507094059 38 331 0.0 0.0 0.00 0.00 0.00 90 1014.8
20260507093959 38 331 0.0 0.0 0.00 0.00 0.00 90 1014.8
20260507093901 38 331 0.0 0.0 0.00 0.00 0.00 90 1014.7
20260507093759 38 331 0.0 0.0 0.00 0.00 0.00 89 1014.8
20260507093700 38 331 0.0 0.0 0.00 0.00 0.00 89 1014.8
20260507093600 38 331 0.0 0.0 0.00 0.00 0.00 89 1014.8
20260507093459 38 331 0.0 0.0 0.00 0.00 0.00 89 1014.8
20260507093259 38 331 0.0 0.0 0.00 0.00 0.00 89 1014.7
20260507093158 38 331 0.0 0.0 0.00 0.00 0.00 89 1014.7
20260507093059 38 331 0.0 0.0 0.00 0.00 0.00 89 1014.8
20260507093000 38 331 0.0 0.0 0.00 0.00 0.00 89 1014.7
20260507092900 38 331 0.0 0.0 0.00 0.00 0.00 89 1014.8
20260507092759 38 331 0.0 0.0 0.00 0.00 0.00 89 1014.8
20260507092659 38 331 0.0 0.0 0.00 0.00 0.00 90 1014.7
20260507092600 38 331 0.0 0.0 0.00 0.00 0.00 90 1014.7
20260507092459 38 331 0.0 0.0 0.00 0.00 0.00 90 1014.7
20260507092400 38 331 0.0 0.0 0.00 0.00 0.00 90 1014.7
20260507092259 38 331 0.0 0.0 0.00 0.00 0.00 89 1014.7
20260507092159 38 331 0.0 0.0 0.00 0.00 0.00 90 1014.7
20260507092059 38 331 0.0 0.0 0.00 0.00 0.00 90 1014.7
20260507091959 38 331 0.0 0.0 0.00 0.00 0.00 90 1014.7
20260507091800 38 331 0.0 0.0 0.00 0.00 0.00 90 1014.6
20260507091559 38 331 0.0 0.0 0.00 0.00 0.00 90 1014.7
20260507091459 39 331 0.0 0.0 0.00 0.00 0.00 90 1014.7
20260507091358 38 331 0.0 0.0 0.00 0.00 0.00 90 1014.7
20260507091259 39 331 0.0 0.0 0.00 0.00 0.00 90 1014.6
20260507091100 38 331 0.0 0.0 0.00 0.00 0.00 89 1014.6
20260507090901 39 331 0.0 0.0 0.00 0.00 0.00 89 1014.6
20260507090759 39 331 0.0 0.0 0.00 0.00 0.00 89 1014.7
20260507090658 39 331 0.0 0.0 0.00 0.00 0.00 89 1014.7
20260507090500 39 331 0.0 0.0 0.00 0.00 0.00 89 1014.6
20260507090359 39 331 0.0 0.0 0.00 0.00 0.00 89 1014.7
20260507090259 39 331 0.0 0.0 0.00 0.00 0.00 89 1014.7
20260507090159 39 331 0.0 0.0 0.00 0.00 0.00 89 1014.7
20260507085759 39 331 0.0 0.0 0.00 0.01 0.00 89 1014.6
20260507085659 39 331 0.0 0.0 0.00 0.01 0.00 89 1014.6
20260507085600 39 331 0.0 0.0 0.00 0.01 0.00 89 1014.7
20260507085458 39 331 0.0 0.0 0.00 0.01 0.00 89 1014.7
20260507085200 39 331 0.0 0.0 0.00 0.01 0.00 90 1014.6
20260507085059 39 331 0.0 0.0 0.00 0.01 0.00 90 1014.6
20260507084959 39 331 0.0 0.0 0.00 0.01 0.00 90 1014.6
20260507084859 39 331 0.0 0.0 0.00 0.01 0.00 90 1014.6
20260507084759 39 331 0.0 0.0 0.00 0.01 0.00 90 1014.5
20260507084658 39 331 0.0 0.0 0.00 0.01 0.00 90 1014.5
20260507084600 39 331 0.0 0.0 0.00 0.01 0.00 90 1014.6
20260507084500 39 331 0.0 0.0 0.00 0.01 0.00 90 1014.5
20260507084259 39 331 0.0 0.0 0.00 0.01 0.00 90 1014.5
20260507084159 39 331 0.0 0.0 0.00 0.01 0.00 90 1014.6
20260507084059 39 331 0.0 0.0 0.00 0.01 0.00 90 1014.6
20260507083959 39 331 0.0 0.0 0.00 0.01 0.00 89 1014.5
20260507083858 39 331 0.0 0.0 0.00 0.01 0.00 89 1014.6
20260507083759 39 331 0.0 0.0 0.00 0.01 0.00 89 1014.5
20260507083703 39 331 0.0 0.0 0.00 0.01 0.00 89 1014.5
20260507083559 39 331 0.0 0.0 0.00 0.01 0.00 89 1014.6
20260507083500 39 331 0.0 0.0 0.00 0.01 0.00 89 1014.5
20260507083400 39 331 0.0 0.0 0.00 0.01 0.00 89 1014.5
20260507083259 39 331 0.0 0.0 0.00 0.01 0.00 89 1014.5
20260507083100 39 331 0.0 0.0 0.00 0.01 0.00 89 1014.6
20260507082959 39 331 0.0 0.0 0.00 0.01 0.00 89 1014.5
20260507082859 39 331 0.0 0.0 0.00 0.01 0.00 89 1014.5
20260507082801 39 331 0.0 0.0 0.00 0.01 0.00 89 1014.6
20260507082658 39 331 0.0 0.0 0.00 0.01 0.00 89 1014.5
20260507082559 39 331 0.0 0.0 0.00 0.01 0.00 89 1014.5
20260507082458 39 331 0.0 0.0 0.00 0.01 0.00 89 1014.5
20260507082359 39 331 0.0 0.0 0.00 0.01 0.00 89 1014.5
20260507082258 39 331 0.0 0.0 0.00 0.01 0.00 89 1014.4
20260507082200 39 331 0.0 0.0 0.00 0.01 0.00 89 1014.5
20260507081959 39 331 0.0 0.0 0.00 0.01 0.00 89 1014.4
20260507081900 39 331 0.0 0.0 0.00 0.01 0.00 89 1014.5
20260507081759 39 331 0.0 0.0 0.00 0.01 0.00 89 1014.5
20260507081558 39 331 0.0 0.0 0.00 0.01 0.00 89 1014.5
20260507081500 39 331 0.0 0.0 0.00 0.01 0.00 89 1014.4
20260507081400 39 331 0.0 0.0 0.00 0.01 0.00 89 1014.4
20260507081301 39 331 0.0 0.0 0.00 0.01 0.00 89 1014.4
20260507081158 39 331 0.0 0.0 0.00 0.01 0.00 89 1014.4
20260507081058 39 331 0.0 0.0 0.00 0.01 0.00 89 1014.4
20260507080900 40 331 0.0 0.0 0.00 0.01 0.00 89 1014.4
20260507080758 40 331 0.0 0.0 0.00 0.01 0.00 89 1014.4
20260507080501 40 331 0.0 0.0 0.00 0.01 0.00 89 1014.3
20260507080358 40 331 0.0 0.0 0.00 0.01 0.00 89 1014.3
20260507080259 40 331 0.0 0.0 0.00 0.01 0.00 89 1014.3
20260507080059 40 331 0.0 0.0 0.00 0.01 0.00 89 1014.3
20260507075759 40 331 0.0 0.0 0.00 0.05 0.00 89 1014.3
20260507075658 40 331 0.0 0.0 0.00 0.05 0.00 89 1014.3
20260507075600 40 331 0.0 0.0 0.00 0.05 0.00 89 1014.3
20260507075358 40 331 0.0 0.0 0.00 0.05 0.00 89 1014.3
20260507075259 40 331 0.0 0.0 0.00 0.05 0.00 89 1014.3
20260507075200 40 331 0.0 0.0 0.00 0.05 0.00 89 1014.2
20260507075101 40 331 0.0 0.0 0.00 0.05 0.00 89 1014.3
20260507075000 40 331 0.0 0.0 0.00 0.05 0.00 89 1014.3
20260507074759 40 331 0.0 0.0 0.00 0.05 0.00 89 1014.4
20260507074659 40 331 0.0 0.0 0.00 0.05 0.00 89 1014.3
20260507074458 40 331 0.0 0.0 0.00 0.05 0.00 89 1014.3
20260507074359 40 331 0.0 0.0 0.00 0.05 0.00 89 1014.3
20260507074158 40 331 0.0 0.0 0.00 0.05 0.00 89 1014.3
20260507074059 40 331 0.0 0.0 0.00 0.05 0.00 89 1014.2
20260507073959 40 331 0.0 0.0 0.00 0.05 0.00 88 1014.3
20260507073800 40 331 0.0 0.0 0.00 0.05 0.00 88 1014.3
20260507073659 40 331 0.0 0.0 0.00 0.05 0.00 88 1014.3
20260507073559 40 331 0.0 0.0 0.00 0.05 0.00 88 1014.3
20260507073500 40 331 0.0 0.0 0.00 0.05 0.00 88 1014.2
20260507073400 40 331 0.0 0.0 0.00 0.05 0.00 88 1014.3
20260507073259 40 331 0.0 0.0 0.00 0.05 0.00 88 1014.3
20260507073201 40 331 0.0 0.0 0.00 0.05 0.00 88 1014.3
20260507073100 40 331 0.0 0.0 0.00 0.05 0.00 88 1014.3
20260507073000 40 331 0.0 0.0 0.00 0.05 0.00 89 1014.3
20260507072801 40 331 0.0 0.0 0.00 0.05 0.00 88 1014.3
20260507072700 40 331 0.0 0.0 0.00 0.05 0.00 88 1014.3
20260507072600 40 331 0.0 0.0 0.00 0.05 0.00 88 1014.3
20260507072500 40 331 0.0 0.0 0.00 0.05 0.00 88 1014.4
20260507072400 41 331 0.0 0.0 0.00 0.05 0.00 88 1014.3
20260507072259 41 331 0.0 0.0 0.00 0.05 0.00 88 1014.4
20260507072200 41 331 0.0 0.0 0.00 0.05 0.00 88 1014.3
20260507072059 41 331 0.0 0.0 0.00 0.05 0.00 88 1014.3
20260507072001 41 331 0.0 0.0 0.00 0.05 0.00 88 1014.3
20260507071803 41 331 0.0 0.0 0.00 0.05 0.00 88 1014.3
20260507071659 41 331 0.0 0.0 0.00 0.05 0.00 88 1014.2
20260507071600 41 331 0.0 0.0 0.00 0.05 0.00 88 1014.3
20260507071500 41 331 0.0 0.0 0.00 0.05 0.00 88 1014.3
20260507071259 41 331 0.0 0.0 0.00 0.05 0.00 88 1014.3
20260507071201 41 331 0.0 0.0 0.00 0.05 0.00 88 1014.3
20260507071059 41 331 0.0 0.0 0.00 0.05 0.00 88 1014.3
20260507071000 41 331 0.0 0.0 0.00 0.05 0.00 88 1014.3
20260507070859 41 331 0.0 0.0 0.00 0.05 0.00 88 1014.3
20260507070800 41 331 0.0 0.0 0.00 0.05 0.00 88 1014.2
20260507070700 41 331 0.0 0.0 0.00 0.05 0.00 88 1014.3
20260507070559 41 331 0.0 0.0 0.00 0.05 0.00 88 1014.2
20260507070359 41 331 0.0 0.0 0.00 0.05 0.00 88 1014.2
20260507070300 41 331 0.0 0.0 0.00 0.05 0.00 88 1014.2
20260507070159 41 331 0.0 0.0 0.00 0.05 0.00 88 1014.2
20260507070059 41 331 0.0 0.0 0.00 0.05 0.00 88 1014.2
20260507070000 41 331 0.0 0.0 0.00 0.18 0.00 88 1014.2
20260507065901 41 331 0.0 0.0 0.00 0.18 0.00 88 1014.2
20260507065759 41 331 0.0 0.0 0.00 0.18 0.00 88 1014.2
20260507065700 41 331 0.0 0.0 0.00 0.18 0.00 88 1014.2
20260507065559 41 331 0.0 0.0 0.00 0.18 0.00 88 1014.2
20260507065459 41 331 0.0 0.0 0.00 0.18 0.00 88 1014.3
20260507065359 41 331 0.0 0.0 0.00 0.18 0.00 88 1014.2
20260507065259 41 331 0.0 0.0 0.00 0.18 0.00 88 1014.2
20260507065200 41 331 0.0 0.0 0.00 0.18 0.00 88 1014.2
20260507065103 41 331 0.0 0.0 0.00 0.18 0.00 88 1014.2
20260507065000 41 331 0.0 0.0 0.00 0.18 0.00 88 1014.3
20260507064859 41 331 0.0 0.0 0.00 0.18 0.00 88 1014.3
20260507064759 41 331 0.0 0.0 0.00 0.18 0.00 88 1014.2
20260507064700 41 331 0.0 0.0 0.00 0.18 0.00 88 1014.3
20260507064559 41 331 0.0 0.0 0.00 0.18 0.00 88 1014.3
20260507064459 41 331 0.0 0.0 0.00 0.18 0.00 88 1014.3
20260507064400 41 331 0.0 0.0 0.00 0.18 0.00 88 1014.3
20260507064258 41 331 0.0 0.0 0.00 0.18 0.00 88 1014.3
20260507064059 41 331 0.0 0.0 0.00 0.18 0.00 88 1014.3
20260507063959 41 331 0.0 0.0 0.00 0.18 0.00 88 1014.3
20260507063900 41 331 0.0 0.0 0.00 0.18 0.00 88 1014.3
20260507063759 41 331 0.0 0.0 0.00 0.18 0.00 88 1014.3
20260507063659 41 331 0.0 0.0 0.00 0.18 0.00 88 1014.3
20260507063459 41 331 0.0 0.0 0.00 0.18 0.00 88 1014.4
20260507063359 41 331 0.0 0.0 0.00 0.18 0.00 88 1014.3
20260507063259 41 331 0.0 0.0 0.00 0.18 0.00 88 1014.4
20260507063158 41 331 0.0 0.0 0.00 0.18 0.00 88 1014.4
20260507063059 41 331 0.0 0.0 0.00 0.18 0.00 87 1014.4
20260507062959 41 331 0.0 0.0 0.00 0.18 0.00 87 1014.4
20260507062900 41 331 0.0 0.0 0.00 0.18 0.00 87 1014.4
20260507062759 41 331 0.0 0.0 0.00 0.18 0.00 87 1014.5
20260507062700 42 331 0.0 0.0 0.00 0.18 0.00 87 1014.4
20260507062558 42 331 0.0 0.0 0.00 0.18 0.00 87 1014.5
20260507062459 42 331 0.0 0.0 0.00 0.18 0.00 87 1014.5
20260507062400 42 331 0.0 0.0 0.00 0.18 0.00 87 1014.5
20260507062259 42 331 0.0 0.0 0.00 0.18 0.00 87 1014.5
20260507062200 42 331 0.0 0.0 0.00 0.18 0.00 87 1014.5
20260507062058 42 331 0.0 0.0 0.00 0.18 0.00 87 1014.5
20260507061958 42 331 0.0 0.0 0.00 0.18 0.00 87 1014.5
20260507061859 42 331 0.0 0.0 0.00 0.18 0.00 87 1014.5
20260507061659 42 331 0.0 0.0 0.00 0.18 0.00 87 1014.5
20260507061259 42 331 0.0 0.0 0.00 0.18 0.00 87 1014.4
20260507061159 42 331 0.0 0.0 0.00 0.18 0.00 87 1014.5
20260507061058 42 331 0.0 0.0 0.00 0.18 0.00 87 1014.4
20260507061001 42 331 0.0 0.0 0.00 0.18 0.00 87 1014.4
20260507060858 42 331 0.0 0.0 0.00 0.18 0.00 87 1014.4
20260507060758 42 331 0.0 0.0 0.00 0.18 0.00 87 1014.3
20260507060659 42 331 0.0 0.0 0.00 0.18 0.00 87 1014.3
20260507060558 42 331 0.0 0.0 0.00 0.18 0.00 87 1014.3
20260507060500 42 331 0.0 0.0 0.00 0.18 0.00 87 1014.3
20260507060159 42 331 0.0 0.0 0.00 0.18 0.00 87 1014.3
20260507060100 42 331 0.0 0.0 0.00 0.18 0.00 87 1014.4
20260507060001 42 331 0.0 0.0 0.00 0.18 0.00 87 1014.4
20260507055900 42 331 0.0 0.0 0.00 0.31 0.00 87 1014.3
20260507055759 42 331 0.0 0.0 0.00 0.31 0.00 87 1014.3
20260507055659 42 331 0.0 0.0 0.00 0.31 0.00 87 1014.3
20260507055559 42 331 0.0 0.0 0.00 0.31 0.00 87 1014.3
20260507055459 42 331 0.0 0.0 0.00 0.31 0.00 87 1014.4
20260507055259 42 331 0.0 0.0 0.00 0.31 0.00 87 1014.4
20260507055200 42 331 0.0 0.0 0.00 0.31 0.00 87 1014.4
20260507055059 42 331 0.0 0.0 0.00 0.31 0.00 87 1014.4
20260507054959 42 331 0.0 0.0 0.00 0.31 0.00 87 1014.4
20260507054859 42 331 0.0 0.0 0.00 0.31 0.00 87 1014.5
20260507054801 42 331 0.0 0.0 0.00 0.31 0.00 87 1014.4
20260507054659 42 331 0.0 0.0 0.00 0.31 0.00 87 1014.5
20260507054601 42 331 0.0 0.0 0.00 0.31 0.00 87 1014.4
20260507054458 42 331 0.0 0.0 0.00 0.31 0.00 87 1014.6
20260507054400 42 331 0.0 0.0 0.00 0.31 0.00 87 1014.5
20260507054259 42 331 0.0 0.0 0.00 0.31 0.00 87 1014.5
20260507054201 42 331 0.0 0.0 0.00 0.31 0.00 87 1014.5
20260507054000 42 331 0.0 0.0 0.00 0.31 0.00 87 1014.5
20260507053758 42 331 0.0 0.0 0.00 0.31 0.00 87 1014.5
20260507053459 42 331 0.0 0.0 0.00 0.31 0.00 86 1014.6
20260507053401 42 331 0.0 0.0 0.00 0.31 0.00 86 1014.5
20260507053300 42 331 0.0 0.0 0.00 0.31 0.00 86 1014.6
20260507053159 42 331 0.0 0.0 0.00 0.31 0.00 86 1014.6
20260507053101 43 331 0.0 0.0 0.00 0.31 0.00 86 1014.6
20260507052958 43 331 0.0 0.0 0.00 0.31 0.00 86 1014.6
20260507052859 43 331 0.0 0.0 0.00 0.31 0.00 86 1014.5
20260507052758 43 331 0.0 0.0 0.00 0.31 0.00 86 1014.5
20260507052659 43 331 0.0 0.0 0.00 0.31 0.00 86 1014.6
20260507052559 43 331 0.0 0.0 0.00 0.31 0.00 86 1014.6
20260507052500 43 331 0.0 0.0 0.00 0.31 0.00 86 1014.6
20260507052358 43 331 0.0 0.0 0.00 0.31 0.00 86 1014.6
20260507052059 43 331 0.0 0.0 0.00 0.31 0.00 86 1014.6
20260507052000 43 331 0.0 0.0 0.00 0.31 0.00 86 1014.6
20260507051858 43 331 0.0 0.0 0.00 0.31 0.00 86 1014.6
20260507051802 43 331 0.0 0.0 0.00 0.31 0.00 86 1014.6
20260507051700 43 331 0.0 0.0 0.00 0.31 0.00 86 1014.6
20260507051501 43 331 0.0 0.0 0.00 0.31 0.00 86 1014.4
20260507051359 43 331 0.0 0.0 0.00 0.31 0.00 86 1014.4
20260507051159 43 331 0.0 0.0 0.00 0.31 0.00 86 1014.4
20260507051100 43 331 0.0 0.0 0.00 0.31 0.00 86 1014.4
20260507050758 43 331 0.0 0.0 0.00 0.31 0.00 85 1014.5
20260507050658 43 331 0.0 0.0 0.00 0.31 0.00 85 1014.4
20260507050600 43 331 0.0 0.0 0.00 0.31 0.00 85 1014.5
20260507050500 43 331 0.0 0.0 0.00 0.31 0.00 85 1014.5
20260507050359 43 331 0.0 0.0 0.00 0.31 0.00 85 1014.5
20260507050259 43 331 0.0 0.0 0.00 0.31 0.00 85 1014.5
20260507050159 43 331 0.0 0.0 0.00 0.31 0.00 85 1014.5
20260507045858 43 331 0.0 0.0 0.00 0.44 0.00 85 1014.6
20260507045759 43 331 0.0 0.0 0.00 0.44 0.00 85 1014.6
20260507045659 43 331 0.0 0.0 0.00 0.44 0.00 85 1014.6
20260507045558 43 331 0.0 0.0 0.00 0.44 0.00 85 1014.6
20260507045500 43 331 0.0 0.0 0.00 0.44 0.00 85 1014.6
20260507045259 43 331 0.0 0.0 0.00 0.44 0.00 85 1014.6
20260507045159 44 331 0.0 0.0 0.00 0.44 0.00 85 1014.6
20260507045100 44 331 0.0 0.0 0.00 0.44 0.00 85 1014.6
20260507044959 44 331 0.0 0.0 0.00 0.44 0.00 85 1014.6
20260507044559 44 331 0.0 0.0 0.00 0.44 0.00 85 1014.7
20260507044500 44 331 0.0 0.0 0.00 0.44 0.00 85 1014.5
20260507044359 44 331 0.0 0.0 0.00 0.44 0.00 85 1014.5
20260507044258 44 331 0.0 0.0 0.00 0.44 0.00 85 1014.6
20260507044159 44 331 0.0 0.0 0.00 0.44 0.00 85 1014.7
20260507044059 44 331 0.0 0.0 0.00 0.44 0.00 85 1014.6
20260507043958 44 331 0.0 0.0 0.00 0.44 0.00 85 1014.7
20260507043859 44 331 0.0 0.0 0.00 0.44 0.00 85 1014.6
20260507043759 44 331 0.0 0.0 0.00 0.44 0.00 84 1014.7
20260507043659 44 331 0.0 0.0 0.00 0.44 0.00 84 1014.7
20260507043559 44 331 0.0 0.0 0.00 0.44 0.00 84 1014.7
20260507043459 44 331 0.0 0.0 0.00 0.44 0.00 84 1014.7
20260507043358 44 331 0.0 0.0 0.00 0.44 0.00 84 1014.7
20260507043259 44 331 0.0 0.0 0.00 0.44 0.00 84 1014.7
20260507043101 44 331 0.0 0.0 0.00 0.44 0.00 84 1014.6
20260507043001 44 331 0.0 0.0 0.00 0.44 0.00 84 1014.6
20260507042702 44 331 0.0 0.0 0.00 0.44 0.00 84 1014.6
20260507042601 44 331 0.0 0.0 0.00 0.44 0.00 84 1014.7
20260507042259 44 331 0.0 0.0 0.00 0.44 0.00 84 1014.6
20260507042200 44 331 0.0 0.0 0.00 0.44 0.00 84 1014.6
20260507042002 45 331 0.0 0.0 0.00 0.44 0.00 84 1014.6
20260507041900 45 331 0.0 0.0 0.00 0.44 0.00 84 1014.6
20260507041759 45 331 0.0 0.0 0.00 0.44 0.00 84 1014.7
20260507041700 45 331 0.0 0.0 0.00 0.44 0.00 84 1014.7
20260507041600 45 331 0.0 0.0 0.00 0.44 0.00 84 1014.6
20260507041401 45 331 0.0 0.0 0.00 0.44 0.00 83 1014.7
20260507041300 45 331 0.0 0.0 0.00 0.44 0.00 83 1014.6
20260507041200 45 331 0.0 0.0 0.00 0.44 0.00 83 1014.6
20260507041000 45 331 0.0 0.0 0.00 0.44 0.00 83 1014.6
20260507040900 45 331 0.0 0.0 0.00 0.44 0.00 83 1014.6
20260507040801 45 331 0.0 0.0 0.00 0.44 0.00 83 1014.6
20260507040700 45 331 0.0 0.0 0.00 0.44 0.00 83 1014.6
20260507040500 45 331 0.0 0.0 0.00 0.44 0.00 83 1014.6
20260507040401 45 331 0.0 0.0 0.00 0.44 0.00 83 1014.7
20260507040300 45 331 0.0 0.0 0.00 0.44 0.00 83 1014.6
20260507040201 45 331 0.0 0.0 0.00 0.44 0.00 83 1014.6
20260507040100 45 331 0.0 0.0 0.00 0.44 0.00 83 1014.6
20260507040007 45 331 0.0 0.0 0.00 0.44 0.00 83 1014.6
20260507035902 45 331 0.0 0.0 0.00 0.45 0.44 83 1014.5
20260507035703 45 331 0.0 0.0 0.00 0.45 0.44 83 1014.6
20260507035602 45 331 0.0 0.0 0.00 0.45 0.44 83 1014.6
20260507035501 45 331 0.0 0.0 0.00 0.45 0.44 83 1014.6
20260507035401 45 331 0.0 0.0 0.00 0.45 0.44 83 1014.6
20260507035306 45 331 0.0 0.0 0.00 0.45 0.44 83 1014.5
20260507035201 46 331 0.0 0.0 0.00 0.45 0.44 83 1014.5
20260507035101 46 331 0.0 0.0 0.00 0.45 0.44 83 1014.5
20260507035003 46 331 0.0 0.0 0.00 0.45 0.44 83 1014.5
20260507034902 46 331 0.0 0.0 0.00 0.45 0.44 83 1014.5
20260507034803 46 331 0.0 0.0 0.00 0.45 0.44 83 1014.5
20260507034703 46 331 0.0 0.0 0.00 0.45 0.44 83 1014.5
20260507034602 46 331 0.0 0.0 0.00 0.45 0.44 83 1014.5
20260507034302 46 331 0.0 0.0 0.00 0.45 0.44 83 1014.5
20260507034203 46 331 0.0 0.0 0.00 0.45 0.44 83 1014.5
20260507034104 46 331 0.0 0.0 0.00 0.45 0.44 83 1014.5
20260507034003 46 331 0.0 0.0 0.00 0.45 0.44 83 1014.5
20260507033902 46 331 0.0 0.0 0.00 0.45 0.44 83 1014.5
20260507033803 46 331 0.0 0.0 0.00 0.45 0.44 83 1014.5
20260507033701 46 331 0.0 0.0 0.00 0.45 0.44 83 1014.6
20260507033502 46 331 0.0 0.0 0.00 0.45 0.44 83 1014.5
20260507033201 46 331 0.0 0.0 0.00 0.45 0.44 83 1014.6
20260507033104 46 331 0.0 0.0 0.00 0.45 0.44 83 1014.6
20260507033003 46 331 0.0 0.0 0.00 0.45 0.44 83 1014.6
20260507032901 46 331 0.0 0.0 0.00 0.45 0.44 83 1014.7
20260507032803 46 331 0.0 0.0 0.00 0.45 0.44 83 1014.7
20260507032701 46 331 0.0 0.0 0.00 0.45 0.44 83 1014.6
20260507032601 46 331 0.0 0.0 0.00 0.45 0.44 83 1014.6
20260507032502 46 331 0.0 0.0 0.00 0.45 0.44 83 1014.6
20260507032404 46 331 0.0 0.0 0.00 0.45 0.44 83 1014.6
20260507032305 46 331 0.0 0.0 0.00 0.45 0.44 83 1014.6
20260507032202 46 331 0.0 0.0 0.00 0.45 0.44 83 1014.6
20260507032102 46 331 0.0 0.0 0.00 0.45 0.44 82 1014.6
20260507032002 46 331 0.0 0.0 0.00 0.45 0.44 82 1014.6
20260507031901 46 331 0.0 0.0 0.00 0.45 0.44 82 1014.6
20260507031801 46 331 0.0 0.0 0.00 0.45 0.44 82 1014.6
20260507031704 46 331 0.0 0.0 0.00 0.45 0.44 82 1014.6
20260507031501 46 331 0.0 0.0 0.00 0.45 0.44 82 1014.6
20260507031401 46 331 0.0 0.0 0.00 0.45 0.44 81 1014.6
20260507031302 46 331 0.0 0.0 0.00 0.45 0.44 81 1014.6
20260507031202 46 331 0.0 0.0 0.00 0.45 0.44 81 1014.6
20260507031104 46 331 0.0 0.0 0.00 0.45 0.44 81 1014.6
20260507031002 46 331 0.0 0.0 0.00 0.45 0.44 81 1014.6
20260507030902 46 331 0.0 0.0 0.00 0.45 0.44 81 1014.6
20260507030803 46 331 0.0 0.0 0.00 0.45 0.44 81 1014.6
20260507030702 46 331 0.0 0.0 0.00 0.45 0.44 81 1014.6
20260507030605 46 331 0.0 0.0 0.00 0.45 0.44 80 1014.6
20260507030501 46 331 0.0 0.0 0.00 0.45 0.44 80 1014.6
20260507030402 46 331 0.0 0.0 0.00 0.45 0.44 80 1014.6
20260507030159 46 331 0.0 0.0 0.00 0.45 0.44 80 1014.6
20260507030059 46 331 0.0 0.0 0.00 0.45 0.44 80 1014.6
20260507030000 46 331 0.0 0.0 0.00 0.47 0.44 79 1014.6
20260507025901 46 331 0.0 0.0 0.00 0.47 0.44 79 1014.6
20260507025801 46 331 0.0 0.0 0.00 0.47 0.44 79 1014.6
20260507025700 46 331 0.0 0.0 0.00 0.47 0.44 79 1014.7
20260507025601 46 331 0.0 0.0 0.00 0.47 0.44 79 1014.6
20260507025400 46 331 0.0 0.0 0.00 0.47 0.44 79 1014.7
20260507025200 46 331 0.0 0.0 0.00 0.47 0.44 79 1014.6
20260507025100 46 331 0.0 0.0 0.00 0.47 0.44 79 1014.7
20260507025001 46 331 0.0 0.0 0.00 0.47 0.44 79 1014.6
20260507024900 47 331 0.0 0.0 0.00 0.47 0.44 79 1014.6
20260507024801 47 331 0.0 0.0 0.00 0.47 0.44 78 1014.6
20260507024701 47 331 0.0 0.0 0.00 0.47 0.44 79 1014.7
20260507024601 47 331 0.0 0.0 0.00 0.47 0.44 78 1014.6
20260507024500 47 331 0.0 0.0 0.00 0.47 0.44 78 1014.6
20260507024301 47 331 0.0 0.0 0.00 0.47 0.44 79 1014.7
20260507024202 47 331 0.0 0.0 0.00 0.47 0.44 78 1014.6
20260507024100 47 331 0.0 0.0 0.00 0.47 0.44 78 1014.6
20260507024001 47 331 0.0 0.0 0.00 0.47 0.44 78 1014.5
20260507023901 47 331 0.0 0.0 0.00 0.47 0.44 78 1014.5
20260507023803 47 331 0.0 0.0 0.00 0.47 0.44 78 1014.6
20260507023600 47 331 0.0 0.0 0.00 0.47 0.44 78 1014.5
20260507023501 47 331 0.0 0.0 0.00 0.47 0.44 78 1014.5
20260507023302 47 331 0.0 0.0 0.00 0.47 0.44 78 1014.6
20260507023201 47 331 0.0 0.0 0.00 0.47 0.44 78 1014.5
20260507023101 47 331 0.0 0.0 0.00 0.47 0.44 78 1014.6
20260507023000 47 331 0.0 0.0 0.00 0.47 0.44 77 1014.5
20260507022802 48 331 0.0 0.0 0.00 0.47 0.44 77 1014.5
20260507022700 48 331 0.0 0.0 0.00 0.47 0.44 77 1014.5
20260507022601 48 331 0.0 0.0 0.00 0.47 0.44 77 1014.5
20260507022500 48 331 0.0 0.0 0.00 0.47 0.44 77 1014.5
20260507022402 48 331 0.0 0.0 0.00 0.47 0.44 77 1014.5
20260507022301 48 331 0.0 0.0 0.00 0.47 0.44 76 1014.4
20260507022201 48 331 0.0 0.0 0.00 0.47 0.44 76 1014.4
20260507022002 48 331 0.0 0.0 0.00 0.47 0.44 76 1014.4
20260507021900 48 331 0.0 0.0 0.00 0.47 0.44 76 1014.3
20260507021800 48 331 0.0 0.0 0.00 0.47 0.44 76 1014.4
20260507021700 48 331 0.0 0.0 0.00 0.47 0.44 76 1014.4
20260507021603 48 331 0.0 0.0 0.00 0.47 0.44 76 1014.4
20260507021401 48 331 0.0 0.0 0.00 0.47 0.44 76 1014.5
20260507021301 48 331 0.0 0.0 0.00 0.47 0.44 76 1014.5
20260507021200 48 331 0.0 0.0 0.00 0.47 0.44 76 1014.4
20260507021101 48 331 0.0 0.0 0.00 0.47 0.44 76 1014.4
20260507021004 48 331 0.0 0.0 0.00 0.47 0.44 76 1014.4
20260507020901 49 331 0.0 0.0 0.00 0.47 0.44 76 1014.4
20260507020702 49 331 0.0 0.0 0.00 0.47 0.44 76 1014.4
20260507020602 49 331 0.0 0.0 0.00 0.47 0.44 75 1014.4
20260507020402 49 331 0.0 0.0 0.00 0.47 0.44 75 1014.4
20260507020301 49 331 0.0 0.0 0.00 0.47 0.44 75 1014.4
20260507020200 49 331 0.0 0.0 0.00 0.47 0.44 75 1014.3
20260507020100 49 331 0.0 0.0 0.00 0.47 0.44 75 1014.4
20260507020004 49 331 0.0 0.0 0.00 0.56 0.44 75 1014.3
20260507015801 49 331 0.0 0.0 0.00 0.56 0.44 75 1014.4
20260507015701 49 331 0.0 0.0 0.00 0.56 0.44 75 1014.3
20260507015601 49 331 0.0 0.0 0.00 0.56 0.44 75 1014.4
20260507015500 49 331 0.0 0.0 0.00 0.56 0.44 75 1014.4
20260507015401 49 331 0.0 0.0 0.00 0.56 0.44 74 1014.3
20260507015300 49 331 0.0 0.0 0.00 0.56 0.44 74 1014.3
20260507015201 50 331 0.0 0.0 0.00 0.56 0.44 74 1014.4
20260507015101 50 331 0.0 0.0 0.00 0.56 0.44 74 1014.4
20260507015001 50 331 0.0 0.0 0.00 0.56 0.44 73 1014.3
20260507014801 50 331 0.0 0.0 0.00 0.56 0.44 73 1014.3
20260507014702 50 331 0.0 0.0 0.00 0.56 0.44 73 1014.3
20260507014600 50 331 0.0 0.0 0.00 0.56 0.44 73 1014.3
20260507014501 50 331 0.0 0.0 0.00 0.56 0.44 73 1014.3
20260507014400 50 331 0.0 0.0 0.00 0.56 0.44 73 1014.3
20260507014301 50 331 0.0 0.0 0.00 0.56 0.44 73 1014.2
20260507014200 50 331 0.0 0.0 0.00 0.56 0.44 73 1014.3
20260507014102 50 331 0.0 0.0 0.00 0.56 0.44 73 1014.3
20260507014001 50 331 0.0 0.0 0.00 0.56 0.44 73 1014.3
20260507013901 50 331 0.0 0.0 0.00 0.56 0.44 73 1014.2
20260507013703 51 331 0.0 0.0 0.00 0.56 0.44 73 1014.3
20260507013602 51 331 0.0 0.0 0.00 0.56 0.44 73 1014.2
20260507013501 51 331 0.0 0.0 0.00 0.56 0.44 73 1014.2
20260507013301 51 331 0.0 0.0 0.00 0.56 0.44 72 1014.2
20260507013159 51 331 0.0 0.0 0.00 0.56 0.44 73 1014.1
20260507013100 51 331 0.0 0.0 0.00 0.56 0.44 72 1014.1
20260507012959 51 331 0.0 0.0 0.00 0.56 0.44 71 1014.1
20260507012859 51 331 0.0 0.0 0.00 0.56 0.44 71 1014.0
20260507012800 51 331 0.0 0.0 0.00 0.56 0.44 71 1014.0
20260507012700 51 331 0.0 0.0 0.00 0.56 0.44 71 1014.1
20260507012600 51 331 0.0 0.0 0.00 0.56 0.44 71 1014.0
20260507012500 51 331 0.0 0.0 0.00 0.56 0.44 70 1014.0
20260507012400 51 331 0.0 0.0 0.00 0.56 0.44 70 1014.0
20260507012306 51 331 0.0 0.0 0.00 0.56 0.44 70 1014.0
20260507012200 52 331 0.0 0.0 0.00 0.56 0.44 69 1013.9
20260507012059 52 331 0.0 0.0 0.00 0.56 0.44 70 1013.9
20260507011959 52 331 0.0 0.0 0.00 0.56 0.44 70 1013.9
20260507011901 52 331 0.0 0.0 0.00 0.56 0.44 69 1013.9
20260507011802 52 331 0.0 0.0 0.00 0.56 0.44 69 1013.9
20260507011700 52 331 0.0 0.0 0.00 0.56 0.44 69 1013.9
20260507011600 52 331 0.0 0.0 0.00 0.56 0.44 68 1013.9
20260507011501 52 331 0.0 0.0 0.00 0.56 0.44 68 1013.9
20260507011300 52 331 0.0 0.0 0.00 0.56 0.44 67 1013.8
20260507011201 52 331 0.0 0.0 0.00 0.56 0.44 67 1013.7
20260507011100 52 331 0.0 0.0 0.00 0.56 0.44 67 1013.8
20260507010959 52 331 0.0 0.0 0.00 0.56 0.44 67 1013.8
20260507010800 52 331 0.0 0.0 0.00 0.56 0.44 67 1013.7
20260507010559 53 331 0.0 0.0 0.00 0.56 0.44 66 1013.7
20260507010501 53 331 0.0 0.0 0.00 0.56 0.44 66 1013.7
20260507010359 53 331 0.0 0.0 0.00 0.56 0.44 66 1013.7
20260507010259 53 331 0.0 0.0 0.00 0.56 0.44 66 1013.8
20260507010200 53 331 0.0 0.0 0.00 0.56 0.44 66 1013.8
20260507010101 53 331 0.0 0.0 0.00 0.56 0.44 66 1013.8
20260507010001 53 331 0.0 0.0 0.00 0.61 0.44 66 1013.7
20260507005701 53 331 0.0 0.0 0.00 0.61 0.44 66 1013.7
20260507005602 53 331 0.0 0.0 0.00 0.61 0.44 66 1013.7
20260507005501 53 331 0.0 0.0 0.00 0.61 0.44 66 1013.8
20260507005305 54 331 0.0 0.9 0.00 0.61 0.44 65 1013.8
20260507005101 54 331 0.0 0.9 0.00 0.61 0.44 65 1013.9
20260507005001 54 331 0.0 0.9 0.00 0.61 0.44 65 1013.8
20260507004902 54 331 0.0 0.9 0.00 0.61 0.44 65 1013.8
20260507004800 54 331 0.0 0.9 0.00 0.61 0.44 64 1013.8
20260507004700 54 331 0.0 0.9 0.00 0.61 0.44 64 1013.9
20260507004601 54 331 0.0 0.9 0.00 0.61 0.44 64 1013.7
20260507004501 54 331 0.0 0.9 0.00 0.61 0.44 64 1013.8
20260507004400 54 331 0.0 0.9 0.00 0.61 0.44 64 1013.8
20260507004301 54 331 0.0 0.9 0.00 0.61 0.44 63 1013.7
20260507004202 54 331 0.0 0.9 0.00 0.61 0.44 64 1013.8
20260507004000 54 331 0.0 1.7 0.00 0.61 0.44 64 1013.7
20260507003900 54 331 0.0 1.7 0.00 0.61 0.44 64 1013.8
20260507003603 55 331 0.0 1.7 0.00 0.61 0.44 64 1013.8
20260507003502 55 331 0.0 1.7 0.00 0.61 0.44 63 1013.8
20260507003401 55 331 0.0 1.7 0.00 0.61 0.44 63 1013.7
20260507003301 55 331 0.0 1.7 0.00 0.61 0.44 63 1013.7
20260507003200 55 330 0.0 0.0 0.00 0.61 0.44 63 1013.7
20260507003101 55 330 0.0 0.9 0.00 0.61 0.44 63 1013.8
20260507002902 55 330 0.0 0.9 0.00 0.61 0.44 63 1013.9
20260507002801 55 330 0.0 0.9 0.00 0.61 0.44 62 1013.8
20260507002702 55 330 0.0 2.6 0.00 0.61 0.44 63 1013.8
20260507002600 55 330 0.0 2.6 0.00 0.61 0.44 62 1013.7
20260507002501 55 330 0.0 2.6 0.00 0.61 0.44 62 1013.7
20260507002401 55 330 0.0 3.5 0.00 0.61 0.44 62 1013.7
20260507002305 55 330 0.0 3.5 0.00 0.61 0.44 61 1013.7
20260507002201 55 330 0.0 3.5 0.00 0.61 0.44 62 1013.7
20260507002100 55 330 0.0 3.5 0.00 0.61 0.44 61 1013.6
20260507002000 55 330 0.9 3.5 0.00 0.61 0.44 61 1013.7
20260507001801 55 5 0.9 3.5 0.00 0.61 0.44 61 1013.6
20260507001701 55 5 0.0 3.5 0.00 0.61 0.44 60 1013.6
20260507001602 56 14 0.0 3.5 0.00 0.61 0.44 60 1013.6
20260507001500 56 26 2.6 2.6 0.00 0.61 0.44 60 1013.6
20260507001402 56 355 0.0 2.6 0.00 0.61 0.44 60 1013.6
20260507001300 56 355 0.0 2.6 0.00 0.61 0.44 60 1013.5
20260507001201 56 355 0.0 2.6 0.00 0.61 0.44 59 1013.5
20260507001100 56 355 0.0 2.6 0.00 0.61 0.44 60 1013.5
20260507001001 56 355 0.0 2.6 0.00 0.61 0.44 60 1013.5
20260507000902 56 349 0.0 0.9 0.00 0.61 0.44 59 1013.5
20260507000801 56 349 0.0 1.7 0.00 0.61 0.44 60 1013.6
20260507000700 56 349 0.0 5.2 0.00 0.61 0.44 59 1013.6
20260507000600 56 349 0.0 5.2 0.00 0.61 0.44 59 1013.6
20260507000500 56 349 0.0 5.2 0.00 0.61 0.44 60 1013.6
20260507000400 56 349 0.0 5.2 0.00 0.61 0.44 60 1013.5
20260507000302 56 349 0.0 5.2 0.00 0.61 0.44 59 1013.5
20260507000200 56 347 0.0 5.2 0.00 0.61 0.44 59 1013.5
20260507000101 56 347 0.0 5.2 0.00 0.61 0.44 59 1013.5
20260507000000 56 347 0.0 5.2 0.00 0.63 0.44 58 1013.6
20260506235902 56 347 0.0 5.2 0.00 0.63 0.44 58 1013.6
20260506235801 56 5 3.5 3.5 0.00 0.63 0.44 58 1013.6
20260506235601 56 347 0.0 3.5 0.00 0.63 0.44 57 1013.5
20260506235501 56 347 0.0 3.5 0.00 0.63 0.44 57 1013.5
20260506235400 56 355 0.0 3.5 0.00 0.63 0.44 58 1013.5
20260506235301 56 355 0.0 3.5 0.00 0.63 0.44 58 1013.5
20260506235101 56 355 0.0 4.3 0.00 0.63 0.44 57 1013.4
20260506235000 56 355 0.0 4.3 0.00 0.63 0.44 57 1013.4
20260506234900 56 355 0.0 4.3 0.00 0.63 0.44 58 1013.3
20260506234600 57 5 0.9 4.3 0.00 0.63 0.44 57 1013.3
20260506234502 57 5 2.6 4.3 0.00 0.63 0.44 56 1013.2
20260506234401 57 21 0.9 4.3 0.00 0.63 0.44 56 1013.1
20260506234301 57 335 2.6 4.3 0.00 0.63 0.44 58 1013.1
20260506234201 57 355 1.7 1.7 0.00 0.63 0.44 58 1013.1
20260506234101 57 355 0.9 1.7 0.00 0.63 0.44 57 1013.0
20260506234000 57 355 0.0 1.7 0.00 0.63 0.44 58 1013.1
20260506233901 57 355 0.9 1.7 0.00 0.63 0.44 58 1013.1
20260506233800 57 355 0.0 1.7 0.00 0.63 0.44 59 1013.1
20260506233701 57 355 0.0 1.7 0.00 0.63 0.44 59 1013.1
20260506233501 57 355 0.9 1.7 0.00 0.63 0.44 59 1013.1
20260506233401 57 355 0.0 1.7 0.00 0.63 0.44 59 1013.2
20260506233301 57 355 0.0 1.7 0.00 0.63 0.44 58 1013.2
20260506233202 57 355 0.0 1.7 0.00 0.63 0.44 58 1013.2
20260506233102 57 355 0.0 2.6 0.00 0.63 0.44 58 1013.2
20260506233000 57 360 0.9 5.2 0.00 0.63 0.44 57 1013.2
20260506232901 57 342 0.9 5.2 0.00 0.63 0.44 57 1013.2
20260506232802 57 343 0.0 5.2 0.00 0.63 0.44 58 1013.2
20260506232701 57 343 0.0 5.2 0.00 0.63 0.44 57 1013.3
20260506232602 57 343 0.0 5.2 0.00 0.63 0.44 56 1013.2
20260506232501 57 343 0.9 5.2 0.00 0.63 0.44 56 1013.2
20260506232401 57 343 0.0 5.2 0.00 0.63 0.44 56 1013.3
20260506232305 57 343 1.7 5.2 0.00 0.63 0.44 56 1013.3
20260506232201 57 350 0.0 5.2 0.00 0.63 0.44 56 1013.2
20260506232100 57 332 4.3 4.3 0.00 0.63 0.44 56 1013.2
20260506232000 57 11 0.0 2.6 0.00 0.63 0.44 57 1013.2
20260506231802 58 5 0.0 10.4 0.00 0.63 0.44 56 1013.2
20260506231601 58 12 0.0 10.4 0.00 0.63 0.44 56 1013.2
20260506231402 58 26 0.0 10.4 0.00 0.63 0.44 55 1013.1
20260506231300 58 5 1.7 10.4 0.00 0.63 0.44 56 1013.0
20260506231201 58 5 0.0 10.4 0.00 0.63 0.44 55 1012.9
20260506231102 58 5 0.9 10.4 0.00 0.63 0.44 55 1012.8
20260506231002 58 36 6.1 10.4 0.00 0.63 0.44 55 1012.8
20260506230902 58 9 0.0 1.7 0.00 0.63 0.44 56 1012.8
20260506230802 58 30 0.0 1.7 0.00 0.63 0.44 55 1012.8
20260506230600 59 152 0.0 3.5 0.00 0.63 0.44 55 1012.7
20260506230501 59 349 0.0 5.2 0.00 0.63 0.44 56 1012.7
20260506230401 59 349 0.0 5.2 0.00 0.63 0.44 55 1012.6
20260506230301 59 340 0.0 5.2 0.00 0.63 0.44 55 1012.6
20260506230200 59 348 0.0 5.2 0.00 0.63 0.44 55 1012.5
20260506230002 59 348 0.9 5.2 0.00 0.63 0.44 56 1012.6
20260506225900 59 360 2.6 5.2 0.00 0.63 0.44 56 1012.7
20260506225800 59 5 0.9 5.2 0.00 0.63 0.44 56 1012.6
20260506225659 59 17 0.0 5.2 0.00 0.63 0.44 55 1012.7
20260506225601 59 348 2.6 5.2 0.00 0.63 0.44 55 1012.7
20260506225501 59 26 3.5 3.5 0.00 0.63 0.44 56 1012.8
20260506225359 59 355 0.9 2.6 0.00 0.63 0.44 57 1012.8
20260506225300 59 355 0.9 7.8 0.00 0.63 0.44 56 1012.9
20260506225200 59 348 0.0 7.8 0.00 0.63 0.44 57 1012.8
20260506225100 59 333 0.0 7.8 0.00 0.63 0.44 56 1012.9
20260506224959 59 333 0.0 7.8 0.00 0.63 0.44 57 1012.9
20260506224900 59 330 0.9 7.8 0.00 0.63 0.44 57 1012.8
20260506224801 59 5 0.0 7.8 0.00 0.63 0.44 56 1012.8
20260506224700 59 5 0.0 7.8 0.00 0.63 0.44 57 1012.9
20260506224501 59 57 0.0 7.8 0.00 0.63 0.44 55 1012.9
20260506224401 59 340 3.5 7.8 0.00 0.63 0.44 55 1013.0
20260506224159 59 355 1.7 5.2 0.00 0.63 0.44 57 1012.9
20260506224001 59 341 2.6 5.2 0.00 0.63 0.44 54 1012.9
20260506223901 59 344 2.6 6.1 0.00 0.63 0.44 55 1012.8
20260506223759 59 347 0.9 3.5 0.00 0.63 0.44 55 1012.8
20260506223700 59 346 0.9 3.5 0.00 0.63 0.44 56 1012.8
20260506223500 59 332 0.0 1.7 0.00 0.63 0.44 55 1012.9
20260506223400 59 333 0.0 1.7 0.00 0.63 0.44 56 1012.9
20260506223303 59 333 0.0 7.8 0.00 0.63 0.44 57 1012.9
20260506223201 59 355 0.0 7.8 0.00 0.63 0.44 56 1013.0
20260506223100 59 360 0.9 7.8 0.00 0.63 0.44 56 1012.9
20260506223000 59 355 0.0 7.8 0.00 0.63 0.44 56 1013.0
20260506222858 59 355 0.9 7.8 0.00 0.63 0.44 56 1013.0
20260506222801 59 355 0.9 7.8 0.00 0.63 0.44 55 1013.1
20260506222600 59 351 0.9 7.8 0.00 0.63 0.44 55 1013.1
20260506222459 59 343 0.9 7.8 0.00 0.63 0.44 55 1013.1
20260506222400 59 13 4.3 7.8 0.00 0.63 0.44 56 1013.2
20260506222159 59 19 1.7 3.5 0.00 0.63 0.44 54 1013.2
20260506222100 59 5 2.6 3.5 0.00 0.63 0.44 54 1013.2
20260506222000 59 5 0.9 4.3 0.00 0.63 0.44 54 1013.3
20260506221900 59 25 1.7 4.3 0.00 0.63 0.44 55 1013.2
20260506221759 59 355 0.0 4.3 0.00 0.63 0.44 55 1013.1
20260506221701 59 355 0.9 4.3 0.00 0.63 0.44 56 1013.2
20260506221459 59 17 0.0 4.3 0.00 0.63 0.44 54 1013.2
20260506221359 59 15 0.0 4.3 0.00 0.63 0.44 54 1013.2
20260506221301 59 15 0.0 4.3 0.00 0.63 0.44 54 1013.2
20260506221201 59 360 0.9 4.3 0.00 0.63 0.44 53 1013.2
20260506221101 59 355 2.6 4.3 0.00 0.63 0.44 55 1013.2
20260506221001 59 346 0.9 4.3 0.00 0.63 0.44 54 1013.2
20260506220900 59 345 0.0 4.3 0.00 0.63 0.44 54 1013.2
20260506220659 59 345 0.0 4.3 0.00 0.63 0.44 55 1013.2
20260506220559 59 5 1.7 4.3 0.00 0.63 0.44 53 1013.1
20260506220459 59 360 2.6 4.3 0.00 0.63 0.44 54 1013.2
20260506220400 59 342 2.6 4.3 0.00 0.63 0.44 55 1013.2
20260506220259 59 30 1.7 4.3 0.00 0.63 0.44 55 1013.3
20260506220059 59 331 0.9 1.7 0.00 0.63 0.44 56 1013.4
20260506215959 59 331 0.0 1.7 0.00 0.67 0.44 55 1013.4
20260506215900 59 331 0.0 1.7 0.00 0.67 0.44 55 1013.3
20260506215759 59 318 0.0 1.7 0.00 0.67 0.44 54 1013.3
20260506215700 59 318 0.9 1.7 0.00 0.67 0.44 53 1013.3
20260506215601 59 318 0.0 1.7 0.00 0.67 0.44 53 1013.3
20260506215400 59 336 0.0 2.6 0.00 0.67 0.44 54 1013.3
20260506215300 59 335 0.0 2.6 0.00 0.67 0.44 53 1013.4
20260506215159 59 335 0.9 2.6 0.00 0.67 0.44 53 1013.3
20260506215059 59 332 0.0 2.6 0.00 0.67 0.44 54 1013.3
20260506215000 59 332 0.0 2.6 0.00 0.67 0.44 53 1013.2
20260506214801 59 342 0.0 2.6 0.00 0.67 0.44 54 1013.3
20260506214659 59 349 0.0 2.6 0.00 0.67 0.44 54 1013.4
20260506214600 59 333 0.9 2.6 0.00 0.67 0.44 53 1013.4
20260506214459 59 348 0.0 1.7 0.00 0.67 0.44 55 1013.4
20260506214359 59 348 0.0 1.7 0.00 0.67 0.44 55 1013.4
20260506214301 59 350 0.0 1.7 0.00 0.67 0.44 55 1013.3
20260506214159 59 355 0.0 1.7 0.00 0.67 0.44 54 1013.3
20260506214100 59 355 0.0 1.7 0.00 0.67 0.44 54 1013.3
20260506213959 59 355 0.0 1.7 0.00 0.67 0.44 53 1013.3
20260506213901 59 355 0.0 2.6 0.00 0.67 0.44 54 1013.3
20260506213759 59 355 0.0 3.5 0.00 0.67 0.44 55 1013.4
20260506213700 59 355 0.0 4.3 0.00 0.67 0.44 54 1013.4
20260506213559 59 332 0.0 4.3 0.00 0.67 0.44 54 1013.3
20260506213500 59 5 0.9 4.3 0.00 0.67 0.44 53 1013.3
20260506213159 60 9 0.0 4.3 0.00 0.67 0.44 54 1013.2
20260506213059 60 9 0.0 4.3 0.00 0.67 0.44 53 1013.2
20260506213000 60 21 2.6 4.3 0.00 0.67 0.44 53 1013.2
20260506212800 60 5 0.0 1.7 0.00 0.67 0.44 53 1013.2
20260506212459 60 244 0.0 4.3 0.00 0.67 0.44 55 1013.1
20260506212359 60 238 0.0 4.3 0.00 0.67 0.44 53 1013.1
20260506212300 60 238 0.0 4.3 0.00 0.67 0.44 54 1013.2
20260506212159 60 223 0.0 4.3 0.00 0.67 0.44 54 1013.2
20260506212100 60 9 0.0 4.3 0.00 0.67 0.44 53 1013.2
20260506211959 60 9 0.0 4.3 0.00 0.67 0.44 53 1013.2
20260506211859 60 343 0.0 4.3 0.00 0.67 0.44 53 1013.2
20260506211759 60 344 2.6 3.5 0.00 0.67 0.44 53 1013.1
20260506211659 60 349 0.0 3.5 0.00 0.67 0.44 53 1013.2
20260506211600 60 55 0.0 3.5 0.00 0.67 0.44 53 1013.1
20260506211502 60 342 0.0 3.5 0.00 0.67 0.44 51 1013.2
20260506211400 60 340 0.0 3.5 0.00 0.67 0.44 53 1013.1
20260506211300 60 278 1.7 3.5 0.00 0.67 0.44 52 1013.1
20260506211201 60 294 0.9 3.5 0.00 0.67 0.44 53 1013.0
20260506211059 60 281 0.0 3.5 0.00 0.67 0.44 51 1013.1
20260506211000 60 321 0.0 3.5 0.00 0.67 0.44 50 1013.1
20260506210859 60 355 2.6 3.5 0.00 0.67 0.44 51 1013.1
20260506210800 60 344 0.0 2.6 0.00 0.67 0.44 52 1013.1
20260506210659 60 328 0.0 2.6 0.00 0.67 0.44 53 1013.1
20260506210559 60 327 0.9 2.6 0.00 0.67 0.44 52 1013.0
20260506210500 60 322 0.9 3.5 0.00 0.67 0.44 51 1013.0
20260506210400 60 346 0.0 3.5 0.00 0.67 0.44 52 1013.0
20260506210100 60 67 0.9 4.3 0.00 0.67 0.44 52 1013.0
20260506210003 60 26 0.9 4.3 0.00 0.67 0.44 52 1013.0
20260506205902 60 24 0.9 4.3 0.00 0.73 0.44 52 1012.8
20260506205803 60 86 0.9 4.3 0.00 0.73 0.44 52 1012.8
20260506205700 61 348 0.0 4.3 0.00 0.73 0.44 51 1012.8
20260506205601 61 48 1.7 4.3 0.00 0.73 0.44 52 1012.8
20260506205501 61 5 1.7 4.3 0.00 0.73 0.44 51 1012.8
20260506205300 61 329 1.7 5.2 0.00 0.73 0.44 51 1013.0
20260506205200 61 338 0.0 5.2 0.00 0.73 0.44 51 1012.9
20260506205100 61 99 1.7 5.2 0.00 0.73 0.44 52 1012.9
20260506205003 61 355 0.0 5.2 0.00 0.73 0.44 52 1012.8
20260506204901 61 340 2.6 5.2 0.00 0.73 0.44 53 1012.8
20260506204701 61 348 1.7 5.2 0.00 0.73 0.44 53 1012.8
20260506204601 61 331 1.7 5.2 0.00 0.73 0.44 53 1012.8
20260506204502 61 348 0.0 3.5 0.00 0.73 0.44 51 1012.8
20260506204400 61 350 1.7 3.5 0.00 0.73 0.44 51 1012.8
20260506204303 61 355 0.9 3.5 0.00 0.73 0.44 51 1012.8
20260506204202 61 340 0.0 3.5 0.00 0.73 0.44 53 1012.8
20260506204101 61 348 0.0 3.5 0.00 0.73 0.44 52 1012.8
20260506204001 61 344 1.7 3.5 0.00 0.73 0.44 54 1012.8
20260506203900 61 327 1.7 3.5 0.00 0.73 0.44 54 1012.9
20260506203800 61 22 1.7 3.5 0.00 0.73 0.44 53 1012.9
20260506203600 61 355 1.7 2.6 0.00 0.73 0.44 52 1012.8
20260506203500 61 333 0.0 2.6 0.00 0.73 0.44 56 1012.8
20260506203401 61 324 0.0 2.6 0.00 0.73 0.44 56 1012.8
20260506203300 61 324 0.0 3.5 0.00 0.73 0.44 53 1012.7
20260506203200 61 306 0.0 3.5 0.00 0.73 0.44 55 1012.7
20260506203101 61 306 0.0 3.5 0.00 0.73 0.44 54 1012.7
20260506203001 60 306 0.0 3.5 0.00 0.73 0.44 53 1012.7
20260506202900 60 300 0.9 3.5 0.00 0.73 0.44 55 1012.9
20260506202701 60 335 0.9 3.5 0.00 0.73 0.44 54 1012.9
20260506202601 60 344 0.0 3.5 0.00 0.73 0.44 54 1012.9
20260506202502 60 344 0.0 3.5 0.00 0.73 0.44 54 1012.9
20260506202401 60 346 0.9 2.6 0.00 0.73 0.44 55 1012.9
20260506202306 60 71 0.9 2.6 0.00 0.73 0.44 56 1012.9
20260506202203 60 73 0.9 2.6 0.00 0.73 0.44 57 1013.0
20260506202101 60 346 0.9 2.6 0.00 0.73 0.44 57 1013.0
20260506202002 60 325 2.6 2.6 0.00 0.73 0.44 56 1013.0
20260506201701 60 5 0.0 3.5 0.00 0.73 0.44 55 1013.1
20260506201501 60 19 0.9 3.5 0.00 0.73 0.44 56 1013.1
20260506201402 60 343 0.9 3.5 0.00 0.73 0.44 57 1013.0
20260506201300 59 58 0.0 3.5 0.00 0.73 0.44 56 1013.0
20260506201203 59 31 2.6 3.5 0.00 0.73 0.44 56 1013.0
20260506201105 60 333 0.9 3.5 0.00 0.73 0.44 55 1013.0
20260506200900 60 5 0.0 3.5 0.00 0.73 0.44 55 1013.1
20260506200800 60 316 0.0 3.5 0.00 0.73 0.44 57 1013.1
20260506200702 60 34 1.7 3.5 0.00 0.73 0.44 56 1013.1
20260506200600 60 349 0.9 3.5 0.00 0.73 0.44 57 1013.0
20260506200504 60 139 0.0 3.5 0.00 0.73 0.44 56 1013.0
20260506200402 60 139 0.0 3.5 0.00 0.73 0.44 56 1013.0
20260506200301 60 333 0.0 4.3 0.00 0.73 0.44 56 1013.0
20260506200202 60 333 1.7 4.3 0.00 0.73 0.44 56 1013.0
20260506200105 60 334 1.7 4.3 0.00 0.73 0.44 57 1013.0
20260506195900 60 325 2.6 4.3 0.00 0.85 0.44 56 1013.0
20260506195800 60 355 1.7 4.3 0.00 0.85 0.44 56 1013.0
20260506195700 60 333 1.7 4.3 0.00 0.85 0.44 56 1013.0
20260506195601 60 29 0.9 4.3 0.00 0.85 0.44 55 1013.0
20260506195400 60 16 2.6 5.2 0.00 0.85 0.44 56 1013.0
20260506195159 60 350 0.9 5.2 0.00 0.85 0.44 57 1013.0
20260506195059 60 360 0.0 5.2 0.00 0.85 0.44 57 1012.9
20260506194959 60 355 0.0 5.2 0.00 0.85 0.44 56 1013.0
20260506194901 60 351 0.0 5.2 0.00 0.85 0.44 55 1013.1
20260506194759 60 15 0.9 5.2 0.00 0.85 0.44 56 1013.0
20260506194659 60 19 0.9 5.2 0.00 0.85 0.44 55 1013.0
20260506194601 60 5 4.3 7.8 0.00 0.85 0.44 55 1013.1
20260506194400 60 108 0.9 7.8 0.00 0.85 0.44 56 1013.0
20260506194259 61 355 0.9 7.8 0.00 0.85 0.44 56 1012.9
20260506194201 61 339 1.7 7.8 0.00 0.85 0.44 56 1013.0
20260506194059 61 326 4.3 7.8 0.00 0.85 0.44 56 1012.9
20260506194000 61 331 0.0 7.8 0.00 0.85 0.44 57 1012.9
20260506193701 61 18 2.6 4.3 0.00 0.85 0.44 54 1012.9
20260506193601 61 360 0.0 4.3 0.00 0.85 0.44 55 1012.9
20260506193500 61 9 2.6 4.3 0.00 0.85 0.44 55 1012.9
20260506193359 61 344 1.7 4.3 0.00 0.85 0.44 56 1012.9
20260506193300 61 336 4.3 4.3 0.00 0.85 0.44 55 1012.8
20260506193203 61 18 0.9 3.5 0.00 0.85 0.44 53 1012.8
20260506193100 61 35 0.9 5.2 0.00 0.85 0.44 54 1012.9
20260506192900 61 355 0.0 7.8 0.00 0.85 0.44 55 1012.7
20260506192701 61 13 0.0 7.8 0.00 0.85 0.44 54 1012.7
20260506192601 61 223 0.0 7.8 0.00 0.85 0.44 53 1012.8
20260506192501 61 348 0.9 7.8 0.00 0.85 0.44 54 1012.8
20260506192401 61 348 1.7 7.8 0.00 0.85 0.44 54 1012.6
20260506192301 61 319 3.5 7.8 0.00 0.85 0.44 53 1012.6
20260506192101 61 5 2.6 7.8 0.00 0.85 0.44 54 1012.5
20260506192000 61 32 0.9 5.2 0.00 0.85 0.44 53 1012.5
20260506191902 62 348 0.9 5.2 0.00 0.85 0.44 54 1012.5
20260506191702 62 9 0.0 4.3 0.00 0.85 0.44 54 1012.4
20260506191503 62 360 0.0 4.3 0.00 0.85 0.44 53 1012.4
20260506191300 62 355 1.7 4.3 0.00 0.85 0.44 53 1012.4
20260506191201 62 348 0.9 3.5 0.00 0.85 0.44 52 1012.4
20260506191101 62 348 3.5 3.5 0.00 0.85 0.44 53 1012.4
20260506191002 62 341 0.9 3.5 0.00 0.85 0.44 52 1012.4
20260506190900 62 355 0.9 3.5 0.00 0.85 0.44 49 1012.3
20260506190701 62 360 3.5 3.5 0.00 0.85 0.44 52 1012.3
20260506190602 62 335 0.0 3.5 0.00 0.85 0.44 53 1012.4
20260506190500 62 360 0.0 3.5 0.00 0.85 0.44 50 1012.4
20260506190400 62 324 0.0 3.5 0.00 0.85 0.44 49 1012.4
20260506190300 62 5 0.9 3.5 0.00 0.85 0.44 53 1012.4
20260506190203 62 348 1.7 3.5 0.00 0.85 0.44 52 1012.4
20260506190100 62 329 0.0 3.5 0.00 0.85 0.44 50 1012.4
20260506190004 62 311 0.0 3.5 0.00 0.85 0.44 49 1012.3
20260506185900 62 315 0.0 3.5 0.00 0.85 0.44 51 1012.3
20260506185800 62 348 0.0 5.2 0.00 0.85 0.44 53 1012.4
20260506185600 62 21 0.0 7.8 0.00 0.85 0.44 50 1012.4
20260506185459 62 5 0.0 7.8 0.00 0.85 0.44 50 1012.5
20260506185400 62 5 3.5 7.8 0.00 0.85 0.44 53 1012.5
20260506185300 62 348 0.0 7.8 0.00 0.85 0.44 53 1012.5
20260506185159 62 350 0.0 7.8 0.00 0.85 0.44 53 1012.4
20260506185100 62 349 0.9 7.8 0.00 0.85 0.44 54 1012.3
20260506184959 62 360 1.7 7.8 0.00 0.85 0.44 53 1012.3
20260506184859 62 355 1.7 7.8 0.00 0.85 0.44 50 1012.3
20260506184801 62 23 3.5 3.5 0.00 0.85 0.44 52 1012.4
20260506184701 62 55 2.6 5.2 0.00 0.85 0.44 51 1012.3
20260506184559 62 329 0.0 5.2 0.00 0.85 0.44 51 1012.3
20260506184400 62 328 1.7 7.8 0.00 0.85 0.44 54 1012.3
20260506184259 62 327 0.0 7.8 0.00 0.85 0.44 53 1012.4
20260506184200 62 349 0.9 7.8 0.00 0.85 0.44 54 1012.5
20260506184101 62 348 0.9 7.8 0.00 0.85 0.44 51 1012.4
20260506184000 62 5 0.9 7.8 0.00 0.85 0.44 52 1012.5
20260506183900 62 33 2.6 7.8 0.00 0.85 0.44 51 1012.4
20260506183759 63 34 0.9 7.8 0.00 0.85 0.44 50 1012.5
20260506183659 63 15 3.5 7.8 0.00 0.85 0.44 53 1012.5
20260506183600 63 347 1.7 7.8 0.00 0.85 0.44 53 1012.4
20260506183459 63 5 4.3 4.3 0.00 0.85 0.44 54 1012.4
20260506183400 63 338 0.0 3.5 0.00 0.85 0.44 55 1012.4
20260506183302 63 338 1.7 3.5 0.00 0.85 0.44 56 1012.4
20260506183201 62 5 0.0 3.5 0.00 0.85 0.44 55 1012.4
20260506183000 62 259 0.0 3.5 0.00 0.85 0.44 52 1012.3
20260506182900 62 263 0.0 3.5 0.00 0.85 0.44 53 1012.4
20260506182801 62 350 0.0 3.5 0.00 0.85 0.44 54 1012.4
20260506182600 62 348 0.0 3.5 0.00 0.85 0.44 55 1012.4
20260506182459 62 14 0.0 3.5 0.00 0.85 0.44 56 1012.4
20260506182402 62 33 2.6 3.5 0.00 0.85 0.44 55 1012.4
20260506182301 62 321 1.7 3.5 0.00 0.85 0.44 60 1012.4
20260506182200 62 360 1.7 3.5 0.00 0.85 0.44 55 1012.4
20260506182100 62 42 2.6 3.5 0.00 0.85 0.44 55 1012.3
20260506182000 62 75 0.9 3.5 0.00 0.85 0.44 55 1012.4
20260506181900 62 17 1.7 3.5 0.00 0.85 0.44 56 1012.4
20260506181802 62 36 0.9 4.3 0.00 0.85 0.44 55 1012.4
20260506181600 62 35 1.7 4.3 0.00 0.85 0.44 55 1012.4
20260506181401 61 313 2.6 4.3 0.00 0.85 0.44 58 1012.5
20260506181300 61 327 3.5 4.3 0.00 0.85 0.44 56 1012.5
20260506181200 61 245 0.9 4.3 0.00 0.85 0.44 56 1012.4
20260506181100 61 355 0.9 4.3 0.00 0.85 0.44 59 1012.5
20260506180959 61 312 0.9 4.3 0.00 0.85 0.44 58 1012.4
20260506180859 61 319 4.3 4.3 0.00 0.85 0.44 59 1012.4
20260506180800 61 325 0.0 3.5 0.00 0.85 0.44 56 1012.4
20260506180600 61 169 0.9 3.5 0.00 0.85 0.44 53 1012.4
20260506180400 61 304 0.9 3.5 0.00 0.85 0.44 58 1012.5
20260506180300 61 340 1.7 3.5 0.00 0.85 0.44 56 1012.6
20260506180159 61 5 0.0 3.5 0.00 0.85 0.44 50 1012.6
20260506180100 61 9 0.0 3.5 0.00 0.85 0.44 50 1012.6
20260506180000 61 5 1.7 3.5 0.00 0.85 0.44 55 1012.6
20260506175902 61 59 1.7 3.5 0.00 0.85 0.44 53 1012.6
20260506175800 61 20 0.0 2.6 0.00 0.85 0.44 54 1012.7
20260506175701 61 344 1.7 2.6 0.00 0.85 0.44 55 1012.7
20260506175500 60 20 0.9 2.6 0.00 0.85 0.44 54 1012.7
20260506175200 60 40 1.7 2.6 0.00 0.85 0.44 60 1012.8
20260506175100 60 20 0.0 4.3 0.00 0.85 0.44 59 1012.7
20260506175000 59 211 0.0 4.3 0.00 0.85 0.44 56 1012.7
20260506174800 59 213 0.0 5.2 0.00 0.85 0.44 57 1012.6
20260506174700 59 213 1.7 7.0 0.00 0.85 0.44 55 1012.7
20260506174601 59 15 0.9 7.0 0.00 0.85 0.44 55 1012.8
20260506174459 59 28 0.9 7.0 0.00 0.85 0.44 57 1012.8
20260506174359 59 98 0.9 7.0 0.00 0.85 0.44 57 1012.8
20260506174300 59 30 0.0 7.0 0.00 0.85 0.44 55 1012.8
20260506174159 59 33 3.5 7.0 0.00 0.85 0.44 57 1012.8
20260506174059 59 330 1.7 7.0 0.00 0.85 0.44 58 1012.9
20260506174000 59 17 2.6 7.0 0.00 0.85 0.44 57 1012.8
20260506173901 59 328 5.2 6.1 0.00 0.85 0.44 55 1013.0
20260506173759 59 336 1.7 4.3 0.00 0.85 0.44 56 1013.0
20260506173700 59 11 3.5 4.3 0.00 0.85 0.44 56 1013.0
20260506173559 59 50 1.7 5.2 0.00 0.85 0.44 57 1013.0
20260506173501 59 77 1.7 3.5 0.00 0.85 0.44 55 1013.0
20260506173202 59 346 3.5 5.2 0.00 0.85 0.44 58 1013.0
20260506173059 59 350 2.6 5.2 0.00 0.85 0.44 57 1012.9
20260506172959 59 195 0.0 5.2 0.00 0.85 0.44 55 1013.0
20260506172859 59 340 0.9 5.2 0.00 0.85 0.44 54 1012.9
20260506172759 59 311 0.0 5.2 0.00 0.85 0.44 54 1012.9
20260506172701 59 355 0.0 5.2 0.00 0.85 0.44 56 1012.8
20260506172600 59 319 1.7 5.2 0.00 0.85 0.44 57 1013.0
20260506172459 59 36 2.6 5.2 0.00 0.85 0.44 59 1012.8
20260506172400 59 360 1.7 3.5 0.00 0.85 0.44 57 1013.0
20260506172159 59 85 0.9 2.6 0.00 0.85 0.44 59 1012.8
20260506172100 59 30 0.9 3.5 0.00 0.85 0.44 57 1012.8
20260506172000 59 17 0.0 7.8 0.00 0.85 0.44 57 1012.8
20260506171859 59 21 0.0 7.8 0.00 0.85 0.44 56 1012.9
20260506171759 59 26 0.0 7.8 0.00 0.85 0.44 60 1012.8
20260506171659 59 5 0.0 7.8 0.00 0.85 0.44 58 1012.9
20260506171600 59 5 0.0 7.8 0.00 0.85 0.44 59 1013.0
20260506171459 59 12 0.0 7.8 0.00 0.85 0.44 59 1013.0
20260506171259 59 22 1.7 7.8 0.00 0.85 0.44 58 1013.0
20260506171159 59 5 3.5 7.8 0.00 0.85 0.44 56 1013.1
20260506171100 59 9 3.5 7.8 0.00 0.85 0.44 54 1013.1
20260506171001 59 34 3.5 7.8 0.00 0.85 0.44 57 1013.1
20260506170859 59 329 2.6 4.3 0.00 0.85 0.44 57 1013.2
20260506170759 59 340 0.9 4.3 0.00 0.85 0.44 57 1013.1
20260506170700 59 348 0.9 4.3 0.00 0.85 0.44 55 1013.1
20260506170601 59 22 2.6 4.3 0.00 0.85 0.44 56 1013.1
20260506170500 59 360 2.6 4.3 0.00 0.85 0.44 60 1013.2
20260506170400 59 355 0.9 4.3 0.00 0.85 0.44 60 1013.2
20260506170200 59 343 2.6 4.3 0.00 0.85 0.44 58 1013.1
20260506170059 59 164 0.9 4.3 0.00 0.85 0.44 59 1013.1
20260506170004 59 317 0.9 4.3 0.00 0.85 0.44 60 1013.3
20260506165902 59 317 0.0 4.3 0.00 0.85 0.44 60 1013.2
20260506165800 59 335 0.9 5.2 0.00 0.85 0.44 59 1013.2
20260506165700 59 331 0.0 5.2 0.00 0.85 0.44 59 1013.2
20260506165600 59 333 0.9 5.2 0.00 0.85 0.44 59 1013.2
20260506165500 59 5 3.5 5.2 0.00 0.85 0.44 59 1013.2
20260506165259 58 5 2.6 5.2 0.00 0.85 0.44 60 1013.2
20260506165101 58 32 1.7 5.2 0.00 0.85 0.44 62 1013.2
20260506165000 58 342 5.2 6.1 0.00 0.85 0.44 62 1013.1
20260506164859 58 350 2.6 7.8 0.00 0.85 0.44 61 1013.1
20260506164759 58 320 0.9 7.8 0.00 0.85 0.44 61 1013.1
20260506164659 58 360 2.6 7.8 0.00 0.85 0.44 60 1013.2
20260506164601 58 306 0.9 7.8 0.00 0.85 0.44 64 1013.2
20260506164500 58 38 0.9 7.8 0.00 0.85 0.44 62 1013.2
20260506164359 58 38 0.9 7.8 0.00 0.85 0.44 60 1013.3
20260506164301 57 38 0.9 8.7 0.00 0.85 0.44 60 1013.3
20260506164159 57 343 3.5 8.7 0.00 0.85 0.44 60 1013.3
20260506164059 57 351 5.2 8.7 0.00 0.85 0.44 55 1013.3
20260506163959 57 5 7.8 8.7 0.00 0.85 0.44 54 1013.3
20260506163900 57 341 1.7 8.7 0.00 0.85 0.44 57 1013.2
20260506163800 57 330 1.7 8.7 0.00 0.85 0.44 55 1013.3
20260506163701 57 330 2.6 8.7 0.00 0.85 0.44 54 1013.3
20260506163459 57 41 0.0 8.7 0.00 0.85 0.44 53 1013.4
20260506163400 57 42 3.5 9.6 0.00 0.85 0.44 53 1013.4
20260506163259 57 21 2.6 9.6 0.00 0.85 0.44 52 1013.4
20260506163200 57 32 1.7 9.6 0.00 0.85 0.44 54 1013.3
20260506163001 57 103 1.7 9.6 0.00 0.85 0.44 55 1013.2
20260506162900 57 50 0.9 9.6 0.00 0.85 0.44 59 1013.2
20260506162800 57 344 2.6 9.6 0.00 0.85 0.44 58 1013.1
20260506162701 57 337 1.7 9.6 0.00 0.85 0.44 59 1013.1
20260506162559 57 40 3.5 9.6 0.00 0.85 0.44 56 1013.1
20260506162500 57 34 8.7 9.6 0.00 0.85 0.44 60 1013.0
20260506162400 56 330 2.6 3.5 0.00 0.85 0.44 62 1013.1
20260506162259 56 22 0.9 4.3 0.00 0.85 0.44 60 1013.1
20260506162200 56 5 0.0 5.2 0.00 0.85 0.44 61 1013.1
20260506162100 56 355 0.9 7.8 0.00 0.85 0.44 64 1013.1
20260506162001 56 344 2.6 7.8 0.00 0.85 0.44 62 1013.1
20260506161859 56 329 0.9 7.8 0.00 0.85 0.44 59 1013.0
20260506161659 56 28 2.6 7.8 0.00 0.85 0.44 59 1013.1
20260506161459 55 10 0.0 7.8 0.00 0.85 0.44 60 1013.1
20260506161400 55 15 4.3 7.8 0.00 0.85 0.44 59 1013.1
20260506161300 55 36 4.3 7.8 0.00 0.85 0.44 60 1013.1
20260506161101 55 360 0.0 7.8 0.00 0.85 0.44 60 1013.2
20260506160959 55 5 1.7 7.8 0.00 0.85 0.44 60 1013.2
20260506160859 55 341 1.7 5.2 0.00 0.85 0.44 61 1013.2
20260506160659 55 11 2.6 5.2 0.00 0.85 0.44 63 1013.3
20260506160600 55 5 0.9 5.2 0.00 0.85 0.44 61 1013.3
20260506160459 55 346 1.7 5.2 0.00 0.85 0.44 60 1013.2
20260506160401 55 5 0.9 5.2 0.00 0.85 0.44 59 1013.3
20260506160259 55 15 1.7 5.2 0.00 0.85 0.44 60 1013.3
20260506160201 55 360 3.5 5.2 0.00 0.85 0.44 61 1013.3
20260506160100 55 344 0.9 4.3 0.00 0.85 0.44 61 1013.3
20260506160001 55 346 0.9 4.3 0.00 0.85 0.44 61 1013.4
20260506155859 55 338 1.7 5.2 0.00 0.85 0.44 62 1013.2
20260506155801 55 19 2.6 5.2 0.00 0.85 0.44 62 1013.1
20260506155701 55 5 2.6 5.2 0.00 0.85 0.44 62 1013.1
20260506155600 55 327 0.0 5.2 0.00 0.85 0.44 62 1013.1
20260506155401 55 351 2.6 5.2 0.00 0.85 0.44 61 1013.1
20260506155259 54 18 0.9 7.8 0.00 0.85 0.44 62 1013.0
20260506155159 54 40 0.9 7.8 0.00 0.85 0.44 62 1013.0
20260506155100 54 9 0.9 7.8 0.00 0.85 0.44 62 1013.0
20260506155000 54 355 4.3 9.6 0.00 0.85 0.44 62 1013.0
20260506154900 54 332 2.6 9.6 0.00 0.85 0.44 61 1013.0
20260506154759 54 51 3.5 9.6 0.00 0.85 0.44 60 1012.9
20260506154659 54 355 1.7 9.6 0.00 0.85 0.44 60 1013.0
20260506154600 54 32 4.3 9.6 0.00 0.85 0.44 61 1013.0
20260506154400 54 16 4.3 9.6 0.00 0.85 0.44 62 1013.0
20260506154259 54 29 4.3 9.6 0.00 0.85 0.44 63 1013.0
20260506154200 54 355 4.3 9.6 0.00 0.85 0.44 63 1012.9
20260506154100 54 22 7.0 7.8 0.00 0.85 0.44 64 1013.0
20260506153959 54 360 0.9 5.2 0.00 0.85 0.44 64 1012.9
20260506153859 54 355 3.5 5.2 0.00 0.85 0.44 65 1012.9
20260506153801 54 304 3.5 5.2 0.00 0.85 0.44 62 1012.8
20260506153659 54 26 1.7 5.2 0.00 0.85 0.44 63 1012.8
20260506153600 54 323 0.0 5.2 0.00 0.85 0.44 61 1012.7
20260506153501 54 30 2.6 5.2 0.00 0.85 0.44 62 1012.7
20260506153302 54 44 1.7 5.2 0.00 0.85 0.44 64 1012.7
20260506153200 54 313 1.7 5.2 0.00 0.85 0.44 64 1012.8
20260506153101 54 42 2.6 7.0 0.00 0.85 0.44 63 1012.8
20260506152959 53 125 0.9 7.0 0.00 0.85 0.44 64 1012.9
20260506152902 53 42 0.9 7.0 0.00 0.85 0.44 62 1012.8
20260506152800 54 315 1.7 7.0 0.00 0.85 0.44 62 1012.9
20260506152659 54 44 3.5 7.0 0.00 0.85 0.44 64 1012.9
20260506152601 53 42 0.9 7.0 0.00 0.85 0.44 65 1012.8
20260506152500 53 336 2.6 7.0 0.00 0.85 0.44 65 1012.8
20260506152159 53 329 5.2 7.0 0.00 0.85 0.44 66 1013.0
20260506152100 53 345 0.9 7.0 0.00 0.85 0.44 66 1013.1
20260506152003 53 321 1.7 7.0 0.00 0.85 0.44 65 1013.1
20260506151901 53 355 0.9 7.0 0.00 0.85 0.44 66 1013.2
20260506151759 53 339 1.7 7.0 0.00 0.85 0.44 66 1013.2
20260506151702 53 344 1.7 7.0 0.00 0.85 0.44 66 1013.2
20260506151559 53 349 0.0 7.0 0.00 0.85 0.44 64 1013.3
20260506151501 53 17 3.5 7.0 0.00 0.85 0.44 63 1013.2
20260506151359 53 30 4.3 7.0 0.00 0.85 0.44 65 1013.3
20260506151202 53 335 2.6 5.2 0.00 0.85 0.44 65 1013.3
20260506151101 53 11 1.7 5.2 0.00 0.85 0.44 68 1013.2
20260506151000 53 22 1.7 5.2 0.00 0.85 0.44 67 1013.1
20260506150900 53 343 4.3 5.2 0.00 0.85 0.44 69 1013.0
20260506150659 53 350 1.7 4.3 0.00 0.85 0.44 68 1012.9
20260506150601 53 355 0.9 4.3 0.00 0.85 0.44 68 1012.9
20260506150501 53 355 0.9 4.3 0.00 0.85 0.44 67 1012.8
20260506150400 53 343 1.7 4.3 0.00 0.85 0.44 66 1012.8
20260506150304 53 347 2.6 4.3 0.00 0.85 0.44 66 1012.8
20260506150100 53 342 0.9 3.5 0.00 0.85 0.44 69 1012.6
20260506150001 52 320 1.7 3.5 0.00 0.85 0.44 68 1012.6
20260506145859 52 355 0.0 5.2 0.00 0.85 0.44 68 1012.4
20260506145800 52 355 0.9 5.2 0.00 0.85 0.44 68 1012.4
20260506145500 52 5 0.9 5.2 0.00 0.85 0.44 69 1012.5
20260506145400 52 38 1.7 5.2 0.00 0.85 0.44 69 1012.5